Wetterdaten: Sonntag, 28.05.2017
Datum Zeit Temp. Aussen Temp. o. S. +5cm Feuchte Auss BlattFeu 1 Luftdruck Regen Sonnenschein Regendauer Solar Windben Empfang
28.05.2017 00:00 23,7 C 22,8 C 20,0 C 59 % 0 lf 1015,8 hPa 0,0 l/m 0 min 0 min 0 W/m 10,5 km/h (2 Bft) 95,65 %
28.05.2017 00:02 23,6 C 22,8 C 20,6 C 59 % 0 lf 1015,9 hPa 0,0 l/m 0 min 0 min 0 W/m 12,6 km/h (3 Bft) 100,00 %
28.05.2017 00:04 23,6 C 22,8 C 20,6 C 59 % 0 lf 1015,9 hPa 0,0 l/m 0 min 0 min 0 W/m 8,4 km/h (2 Bft) 95,74 %
28.05.2017 00:06 23,5 C 22,8 C 20,6 C 60 % 0 lf 1015,9 hPa 0,0 l/m 0 min 0 min 0 W/m 8,4 km/h (2 Bft) 100,00 %
28.05.2017 00:10 23,4 C 22,8 C 20,6 C 60 % 0 lf 1016,0 hPa 0,0 l/m 0 min 0 min 0 W/m 4,2 km/h (1 Bft) 97,89 %
28.05.2017 00:12 23,4 C 22,8 C 20,6 C 60 % 0 lf 1016,0 hPa 0,0 l/m 0 min 0 min 0 W/m 6,3 km/h (2 Bft) 100,00 %
28.05.2017 00:14 23,4 C 22,8 C 20,6 C 60 % 0 lf 1016,0 hPa 0,0 l/m 0 min 0 min 0 W/m 6,3 km/h (2 Bft) 100,00 %
28.05.2017 00:16 23,4 C 22,8 C 20,0 C 60 % 0 lf 1016,0 hPa 0,0 l/m 0 min 0 min 0 W/m 10,5 km/h (2 Bft) 95,74 %
28.05.2017 00:18 23,4 C 22,8 C 20,6 C 61 % 0 lf 1016,1 hPa 0,0 l/m 0 min 0 min 0 W/m 6,3 km/h (2 Bft) 97,87 %
28.05.2017 00:20 23,4 C 22,8 C 20,6 C 62 % 0 lf 1016,1 hPa 0,0 l/m 0 min 0 min 0 W/m 12,6 km/h (3 Bft) 95,74 %
28.05.2017 00:22 23,3 C 22,8 C 20,6 C 63 % 0 lf 1016,0 hPa 0,0 l/m 0 min 0 min 0 W/m 18,8 km/h (3 Bft) 93,62 %
28.05.2017 00:24 23,3 C 22,8 C 21,1 C 66 % 0 lf 1016,1 hPa 0,0 l/m 0 min 0 min 0 W/m 16,7 km/h (3 Bft) 97,83 %
28.05.2017 00:26 23,3 C 22,8 C 21,1 C 66 % 0 lf 1016,1 hPa 0,0 l/m 0 min 0 min 0 W/m 12,6 km/h (3 Bft) 97,87 %
28.05.2017 00:28 23,3 C 22,8 C 21,1 C 66 % 0 lf 1016,1 hPa 0,0 l/m 0 min 0 min 0 W/m 6,3 km/h (2 Bft) 97,87 %
28.05.2017 00:30 23,3 C 22,8 C 20,6 C 67 % 0 lf 1016,1 hPa 0,0 l/m 0 min 0 min 0 W/m 8,4 km/h (2 Bft) 97,87 %
28.05.2017 00:32 23,3 C 22,8 C 20,6 C 67 % 0 lf 1016,3 hPa 0,0 l/m 0 min 0 min 0 W/m 4,2 km/h (1 Bft) 97,92 %
28.05.2017 00:34 23,3 C 22,2 C 20,6 C 68 % 0 lf 1016,4 hPa 0,0 l/m 0 min 0 min 0 W/m 10,5 km/h (2 Bft) 95,74 %
28.05.2017 00:36 23,3 C 22,2 C 20,6 C 69 % 0 lf 1016,4 hPa 0,0 l/m 0 min 0 min 0 W/m 14,6 km/h (3 Bft) 97,92 %
28.05.2017 00:38 23,3 C 22,2 C 20,6 C 70 % 0 lf 1016,3 hPa 0,0 l/m 0 min 0 min 0 W/m 12,6 km/h (3 Bft) 95,74 %
28.05.2017 00:40 23,2 C 22,2 C 20,6 C 71 % 0 lf 1016,2 hPa 0,0 l/m 0 min 0 min 0 W/m 12,6 km/h (3 Bft) 95,74 %
28.05.2017 00:42 23,2 C 22,2 C 20,6 C 71 % 0 lf 1016,2 hPa 0,0 l/m 0 min 0 min 0 W/m 10,5 km/h (2 Bft) 97,14 %
28.05.2017 00:44 23,2 C 22,2 C 20,6 C 71 % 0 lf 1016,2 hPa 0,0 l/m 0 min 0 min 0 W/m 12,6 km/h (3 Bft) 91,49 %
28.05.2017 00:46 23,1 C 22,2 C 20,6 C 72 % 0 lf 1016,2 hPa 0,0 l/m 0 min 0 min 0 W/m 8,4 km/h (2 Bft) 97,83 %
28.05.2017 00:48 23,1 C 22,2 C 20,6 C 72 % 0 lf 1016,2 hPa 0,0 l/m 0 min 0 min 0 W/m 8,4 km/h (2 Bft) 95,74 %
28.05.2017 00:50 23,0 C 22,2 C 20,6 C 72 % 0 lf 1016,2 hPa 0,0 l/m 0 min 0 min 0 W/m 10,5 km/h (2 Bft) 97,87 %
28.05.2017 00:52 22,9 C 21,7 C 20,0 C 72 % 0 lf 1016,3 hPa 0,0 l/m 0 min 0 min 0 W/m 6,3 km/h (2 Bft) 97,87 %
28.05.2017 00:54 22,9 C 21,7 C 20,0 C 73 % 0 lf 1016,3 hPa 0,0 l/m 0 min 0 min 0 W/m 8,4 km/h (2 Bft) 95,74 %
28.05.2017 00:56 22,9 C 21,7 C 20,0 C 73 % 0 lf 1016,4 hPa 0,0 l/m 0 min 0 min 0 W/m 10,5 km/h (2 Bft) 93,62 %
28.05.2017 00:58 22,8 C 21,7 C 20,0 C 73 % 0 lf 1016,3 hPa 0,0 l/m 0 min 0 min 0 W/m 8,4 km/h (2 Bft) 91,30 %
28.05.2017 01:00 22,8 C 21,7 C 20,0 C 73 % 0 lf 1016,3 hPa 0,0 l/m 0 min 0 min 0 W/m 10,5 km/h (2 Bft) 95,74 %
28.05.2017 01:02 22,7 C 21,7 C 20,0 C 73 % 0 lf 1016,3 hPa 0,0 l/m 0 min 0 min 0 W/m 12,6 km/h (3 Bft) 93,62 %
28.05.2017 01:04 22,7 C 21,1 C 20,0 C 74 % 0 lf 1016,3 hPa 0,0 l/m 0 min 0 min 0 W/m 12,6 km/h (3 Bft) 91,49 %
28.05.2017 01:06 22,6 C 21,1 C 19,4 C 74 % 0 lf 1016,3 hPa 0,0 l/m 0 min 0 min 0 W/m 10,5 km/h (2 Bft) 93,62 %
28.05.2017 01:08 22,6 C 21,1 C 19,4 C 74 % 0 lf 1016,3 hPa 0,0 l/m 0 min 0 min 0 W/m 8,4 km/h (2 Bft) 93,62 %
28.05.2017 01:10 22,5 C 21,1 C 19,4 C 74 % 0 lf 1016,4 hPa 0,0 l/m 0 min 0 min 0 W/m 8,4 km/h (2 Bft) 93,48 %
28.05.2017 01:12 22,5 C 21,1 C 19,4 C 74 % 0 lf 1016,3 hPa 0,0 l/m 0 min 0 min 0 W/m 8,4 km/h (2 Bft) 95,74 %
28.05.2017 01:14 22,4 C 21,1 C 19,4 C 74 % 0 lf 1016,4 hPa 0,0 l/m 0 min 0 min 0 W/m 8,4 km/h (2 Bft) 95,74 %
28.05.2017 01:16 22,4 C 21,1 C 19,4 C 74 % 0 lf 1016,3 hPa 0,0 l/m 0 min 0 min 0 W/m 8,4 km/h (2 Bft) 93,62 %
28.05.2017 01:18 22,3 C 21,1 C 19,4 C 74 % 0 lf 1016,2 hPa 0,0 l/m 0 min 0 min 0 W/m 12,6 km/h (3 Bft) 95,74 %
28.05.2017 01:20 22,3 C 21,1 C 19,4 C 74 % 0 lf 1016,2 hPa 0,0 l/m 0 min 0 min 0 W/m 14,6 km/h (3 Bft) 93,62 %
28.05.2017 01:22 22,2 C 21,1 C 19,4 C 75 % 0 lf 1016,2 hPa 0,0 l/m 0 min 0 min 0 W/m 12,6 km/h (3 Bft) 95,65 %
28.05.2017 01:24 22,2 C 21,1 C 19,4 C 75 % 0 lf 1016,4 hPa 0,0 l/m 0 min 0 min 0 W/m 8,4 km/h (2 Bft) 95,74 %
28.05.2017 01:26 22,1 C 21,1 C 19,4 C 75 % 0 lf 1016,5 hPa 0,0 l/m 0 min 0 min 0 W/m 10,5 km/h (2 Bft) 95,74 %
28.05.2017 01:28 22,0 C 21,1 C 19,4 C 75 % 0 lf 1016,5 hPa 0,0 l/m 0 min 0 min 0 W/m 12,6 km/h (3 Bft) 91,49 %
28.05.2017 01:30 21,9 C 21,1 C 19,4 C 75 % 0 lf 1016,4 hPa 0,0 l/m 0 min 0 min 0 W/m 14,6 km/h (3 Bft) 95,74 %
28.05.2017 01:32 21,9 C 21,1 C 19,4 C 75 % 0 lf 1016,4 hPa 0,0 l/m 0 min 0 min 0 W/m 16,7 km/h (3 Bft) 96,23 %
28.05.2017 01:34 21,8 C 21,1 C 19,4 C 75 % 0 lf 1016,3 hPa 0,0 l/m 0 min 0 min 0 W/m 12,6 km/h (3 Bft) 93,62 %
28.05.2017 01:36 21,8 C 20,6 C 19,4 C 75 % 0 lf 1016,5 hPa 0,0 l/m 0 min 0 min 0 W/m 12,6 km/h (3 Bft) 93,48 %
28.05.2017 01:38 21,7 C 20,6 C 19,4 C 76 % 0 lf 1016,4 hPa 0,0 l/m 0 min 0 min 0 W/m 12,6 km/h (3 Bft) 97,87 %
28.05.2017 01:40 21,7 C 20,6 C 19,4 C 76 % 0 lf 1016,4 hPa 0,0 l/m 0 min 0 min 0 W/m 6,3 km/h (2 Bft) 97,87 %
28.05.2017 01:42 21,7 C 20,6 C 19,4 C 76 % 0 lf 1016,4 hPa 0,0 l/m 0 min 0 min 0 W/m 12,6 km/h (3 Bft) 95,83 %
28.05.2017 01:44 21,7 C 20,6 C 19,4 C 76 % 0 lf 1016,4 hPa 0,0 l/m 0 min 0 min 0 W/m 10,5 km/h (2 Bft) 97,87 %
28.05.2017 01:46 21,6 C 20,6 C 19,4 C 76 % 0 lf 1016,5 hPa 0,0 l/m 0 min 0 min 0 W/m 12,6 km/h (3 Bft) 100,00 %
28.05.2017 01:48 21,6 C 20,6 C 18,9 C 76 % 0 lf 1016,5 hPa 0,0 l/m 0 min 0 min 0 W/m 14,6 km/h (3 Bft) 100,00 %
28.05.2017 01:50 21,5 C 20,6 C 18,9 C 76 % 0 lf 1016,5 hPa 0,0 l/m 0 min 0 min 0 W/m 8,4 km/h (2 Bft) 100,00 %
28.05.2017 01:52 21,5 C 20,6 C 18,9 C 76 % 0 lf 1016,5 hPa 0,0 l/m 0 min 0 min 0 W/m 10,5 km/h (2 Bft) 97,87 %
28.05.2017 01:54 21,4 C 20,6 C 18,9 C 76 % 0 lf 1016,6 hPa 0,0 l/m 0 min 0 min 0 W/m 8,4 km/h (2 Bft) 97,87 %
28.05.2017 01:56 21,4 C 20,6 C 18,9 C 76 % 0 lf 1016,5 hPa 0,0 l/m 0 min 0 min 0 W/m 8,4 km/h (2 Bft) 97,87 %
28.05.2017 01:58 21,4 C 20,0 C 18,3 C 76 % 0 lf 1016,5 hPa 0,0 l/m 0 min 0 min 0 W/m 8,4 km/h (2 Bft) 100,00 %
28.05.2017 02:00 21,4 C 20,0 C 18,3 C 76 % 0 lf 1016,5 hPa 0,0 l/m 0 min 0 min 0 W/m 8,4 km/h (2 Bft) 100,00 %
28.05.2017 02:02 21,3 C 20,0 C 18,9 C 76 % 0 lf 1016,6 hPa 0,0 l/m 0 min 0 min 0 W/m 10,5 km/h (2 Bft) 97,92 %
28.05.2017 02:04 21,3 C 20,0 C 18,3 C 77 % 0 lf 1016,5 hPa 0,0 l/m 0 min 0 min 0 W/m 6,3 km/h (2 Bft) 95,74 %
28.05.2017 02:06 21,2 C 20,0 C 18,9 C 77 % 0 lf 1016,5 hPa 0,0 l/m 0 min 0 min 0 W/m 8,4 km/h (2 Bft) 97,87 %
28.05.2017 02:08 21,2 C 20,0 C 18,3 C 77 % 0 lf 1016,5 hPa 0,0 l/m 0 min 0 min 0 W/m 6,3 km/h (2 Bft) 95,74 %
28.05.2017 02:10 21,2 C 20,0 C 18,3 C 77 % 0 lf 1016,5 hPa 0,0 l/m 0 min 0 min 0 W/m 6,3 km/h (2 Bft) 97,83 %
28.05.2017 02:12 21,1 C 20,0 C 18,3 C 77 % 0 lf 1016,5 hPa 0,0 l/m 0 min 0 min 0 W/m 6,3 km/h (2 Bft) 97,92 %
28.05.2017 02:14 21,1 C 20,0 C 18,3 C 77 % 0 lf 1016,5 hPa 0,0 l/m 0 min 0 min 0 W/m 4,2 km/h (1 Bft) 97,87 %
28.05.2017 02:16 21,1 C 19,4 C 18,3 C 77 % 0 lf 1016,5 hPa 0,0 l/m 0 min 0 min 0 W/m 2,1 km/h (1 Bft) 97,87 %
28.05.2017 02:18 21,0 C 19,4 C 18,3 C 77 % 0 lf 1016,5 hPa 0,0 l/m 0 min 0 min 0 W/m 4,2 km/h (1 Bft) 97,87 %
28.05.2017 02:20 21,0 C 19,4 C 17,8 C 77 % 0 lf 1016,6 hPa 0,0 l/m 0 min 0 min 0 W/m 4,2 km/h (1 Bft) 95,74 %
28.05.2017 02:22 21,0 C 19,4 C 17,8 C 77 % 0 lf 1016,7 hPa 0,0 l/m 0 min 0 min 0 W/m 2,1 km/h (1 Bft) 97,87 %
28.05.2017 02:24 20,9 C 19,4 C 17,8 C 77 % 0 lf 1016,7 hPa 0,0 l/m 0 min 0 min 0 W/m 2,1 km/h (1 Bft) 97,87 %
28.05.2017 02:26 20,9 C 19,4 C 17,8 C 77 % 0 lf 1016,7 hPa 0,0 l/m 0 min 0 min 0 W/m 4,2 km/h (1 Bft) 97,87 %
28.05.2017 02:28 20,9 C 19,4 C 17,8 C 77 % 0 lf 1016,7 hPa 0,0 l/m 0 min 0 min 0 W/m 4,2 km/h (1 Bft) 97,87 %
28.05.2017 02:30 20,9 C 19,4 C 17,8 C 78 % 0 lf 1016,7 hPa 0,0 l/m 0 min 0 min 0 W/m 4,2 km/h (1 Bft) 97,87 %
28.05.2017 02:32 20,8 C 18,9 C 17,8 C 78 % 0 lf 1016,8 hPa 0,0 l/m 0 min 0 min 0 W/m 2,1 km/h (1 Bft) 93,62 %
28.05.2017 02:34 20,8 C 18,9 C 17,8 C 78 % 0 lf 1016,8 hPa 0,0 l/m 0 min 0 min 0 W/m 4,2 km/h (1 Bft) 97,87 %
28.05.2017 02:36 20,8 C 18,9 C 17,2 C 78 % 0 lf 1016,7 hPa 0,0 l/m 0 min 0 min 0 W/m 2,1 km/h (1 Bft) 95,74 %
28.05.2017 02:38 20,7 C 18,9 C 17,2 C 78 % 0 lf 1016,8 hPa 0,0 l/m 0 min 0 min 0 W/m 2,1 km/h (1 Bft) 97,87 %
28.05.2017 02:40 20,7 C 18,9 C 17,2 C 78 % 0 lf 1016,8 hPa 0,0 l/m 0 min 0 min 0 W/m 0,0 km/h (0 Bft) 97,87 %
28.05.2017 02:42 20,7 C 18,9 C 16,7 C 78 % 0 lf 1016,7 hPa 0,0 l/m 0 min 0 min 0 W/m 0,0 km/h (0 Bft) 97,87 %
28.05.2017 02:44 20,6 C 18,9 C 16,7 C 78 % 0 lf 1016,8 hPa 0,0 l/m 0 min 0 min 0 W/m 0,0 km/h (0 Bft) 97,87 %
28.05.2017 02:46 20,6 C 18,9 C 16,7 C 78 % 0 lf 1016,8 hPa 0,0 l/m 0 min 0 min 0 W/m 2,1 km/h (1 Bft) 97,87 %
28.05.2017 02:48 20,6 C 18,9 C 16,7 C 78 % 0 lf 1016,7 hPa 0,0 l/m 0 min 0 min 0 W/m 2,1 km/h (1 Bft) 95,74 %
28.05.2017 02:50 20,5 C 18,9 C 16,7 C 78 % 0 lf 1016,7 hPa 0,0 l/m 0 min 0 min 0 W/m 0,0 km/h (0 Bft) 97,87 %
28.05.2017 02:52 20,4 C 18,9 C 16,7 C 78 % 0 lf 1016,8 hPa 0,0 l/m 0 min 0 min 0 W/m 2,1 km/h (1 Bft) 97,83 %
28.05.2017 02:54 20,4 C 18,9 C 16,7 C 78 % 0 lf 1016,9 hPa 0,0 l/m 0 min 0 min 0 W/m 4,2 km/h (1 Bft) 93,62 %
28.05.2017 02:56 20,4 C 18,9 C 16,7 C 78 % 0 lf 1016,9 hPa 0,0 l/m 0 min 0 min 0 W/m 6,3 km/h (2 Bft) 95,74 %
28.05.2017 02:58 20,3 C 18,9 C 16,7 C 78 % 0 lf 1016,9 hPa 0,0 l/m 0 min 0 min 0 W/m 6,3 km/h (2 Bft) 97,87 %
28.05.2017 03:00 20,3 C 18,9 C 16,7 C 79 % 0 lf 1016,9 hPa 0,0 l/m 0 min 0 min 0 W/m 4,2 km/h (1 Bft) 93,62 %
28.05.2017 03:02 20,3 C 18,9 C 16,7 C 79 % 0 lf 1016,7 hPa 0,0 l/m 0 min 0 min 0 W/m 2,1 km/h (1 Bft) 91,43 %
28.05.2017 03:04 20,2 C 18,3 C 16,7 C 79 % 0 lf 1016,8 hPa 0,0 l/m 0 min 0 min 0 W/m 2,1 km/h (1 Bft) 95,74 %
28.05.2017 03:06 20,2 C 18,3 C 16,7 C 79 % 0 lf 1016,8 hPa 0,0 l/m 0 min 0 min 0 W/m 2,1 km/h (1 Bft) 95,65 %
28.05.2017 03:08 20,1 C 18,3 C 16,7 C 79 % 0 lf 1016,8 hPa 0,0 l/m 0 min 0 min 0 W/m 4,2 km/h (1 Bft) 97,87 %
28.05.2017 03:10 20,1 C 18,3 C 16,7 C 79 % 0 lf 1016,8 hPa 0,0 l/m 0 min 0 min 0 W/m 4,2 km/h (1 Bft) 91,49 %
28.05.2017 03:12 20,1 C 18,3 C 16,7 C 79 % 0 lf 1016,7 hPa 0,0 l/m 0 min 0 min 0 W/m 2,1 km/h (1 Bft) 97,87 %
28.05.2017 03:14 20,0 C 18,3 C 16,7 C 79 % 0 lf 1016,7 hPa 0,0 l/m 0 min 0 min 0 W/m 0,0 km/h (0 Bft) 91,49 %
28.05.2017 03:16 19,9 C 18,3 C 16,1 C 79 % 0 lf 1016,6 hPa 0,0 l/m 0 min 0 min 0 W/m 0,0 km/h (0 Bft) 95,74 %
28.05.2017 03:18 19,9 C 18,3 C 16,1 C 80 % 0 lf 1016,6 hPa 0,0 l/m 0 min 0 min 0 W/m 0,0 km/h (0 Bft) 93,48 %
28.05.2017 03:20 19,9 C 18,3 C 16,1 C 80 % 0 lf 1016,6 hPa 0,0 l/m 0 min 0 min 0 W/m 0,0 km/h (0 Bft) 97,87 %
28.05.2017 03:22 19,8 C 18,3 C 16,1 C 80 % 0 lf 1016,7 hPa 0,0 l/m 0 min 0 min 0 W/m 2,1 km/h (1 Bft) 97,87 %
28.05.2017 03:24 19,8 C 18,3 C 16,1 C 80 % 0 lf 1016,6 hPa 0,0 l/m 0 min 0 min 0 W/m 2,1 km/h (1 Bft) 93,62 %
28.05.2017 03:26 19,8 C 18,3 C 16,1 C 80 % 0 lf 1016,6 hPa 0,0 l/m 0 min 0 min 0 W/m 2,1 km/h (1 Bft) 95,74 %
28.05.2017 03:28 19,7 C 18,3 C 16,1 C 80 % 0 lf 1016,6 hPa 0,0 l/m 0 min 0 min 0 W/m 0,0 km/h (0 Bft) 93,62 %
28.05.2017 03:30 19,7 C 18,3 C 16,1 C 80 % 0 lf 1016,6 hPa 0,0 l/m 0 min 0 min 0 W/m 0,0 km/h (0 Bft) 93,48 %
28.05.2017 03:32 19,7 C 18,3 C 16,1 C 80 % 0 lf 1016,6 hPa 0,0 l/m 0 min 0 min 0 W/m 4,2 km/h (1 Bft) 96,30 %
28.05.2017 03:34 19,6 C 18,3 C 16,1 C 80 % 0 lf 1016,7 hPa 0,0 l/m 0 min 0 min 0 W/m 4,2 km/h (1 Bft) 93,48 %
28.05.2017 03:36 19,6 C 18,3 C 16,1 C 80 % 0 lf 1016,7 hPa 0,0 l/m 0 min 0 min 0 W/m 4,2 km/h (1 Bft) 94,00 %
28.05.2017 03:38 19,5 C 18,3 C 16,1 C 81 % 1 lf 1016,8 hPa 0,0 l/m 0 min 0 min 0 W/m 4,2 km/h (1 Bft) 95,74 %
28.05.2017 03:40 19,5 C 18,3 C 16,1 C 81 % 1 lf 1016,8 hPa 0,0 l/m 0 min 0 min 0 W/m 4,2 km/h (1 Bft) 93,62 %
28.05.2017 03:42 19,4 C 18,3 C 16,7 C 82 % 1 lf 1016,8 hPa 0,0 l/m 0 min 0 min 0 W/m 6,3 km/h (2 Bft) 95,83 %
28.05.2017 03:44 19,4 C 17,8 C 16,1 C 82 % 1 lf 1016,7 hPa 0,0 l/m 0 min 0 min 0 W/m 6,3 km/h (2 Bft) 95,65 %
28.05.2017 03:46 19,4 C 17,8 C 16,1 C 82 % 1 lf 1016,7 hPa 0,0 l/m 0 min 0 min 0 W/m 6,3 km/h (2 Bft) 91,49 %
28.05.2017 03:48 19,3 C 17,8 C 16,1 C 82 % 0 lf 1016,7 hPa 0,0 l/m 0 min 0 min 0 W/m 8,4 km/h (2 Bft) 95,74 %
28.05.2017 03:50 19,3 C 18,3 C 16,7 C 82 % 0 lf 1016,8 hPa 0,0 l/m 0 min 0 min 0 W/m 6,3 km/h (2 Bft) 95,74 %
28.05.2017 03:52 19,2 C 18,3 C 16,7 C 83 % 0 lf 1016,7 hPa 0,0 l/m 0 min 0 min 0 W/m 6,3 km/h (2 Bft) 91,67 %
28.05.2017 03:54 19,2 C 18,3 C 16,7 C 83 % 0 lf 1016,7 hPa 0,0 l/m 0 min 0 min 0 W/m 4,2 km/h (1 Bft) 95,74 %
28.05.2017 03:56 19,2 C 18,3 C 16,7 C 83 % 0 lf 1016,7 hPa 0,0 l/m 0 min 0 min 0 W/m 8,4 km/h (2 Bft) 95,65 %
28.05.2017 03:58 19,1 C 18,3 C 16,7 C 83 % 0 lf 1016,7 hPa 0,0 l/m 0 min 0 min 0 W/m 6,3 km/h (2 Bft) 93,62 %
28.05.2017 04:00 19,1 C 18,3 C 16,7 C 84 % 0 lf 1016,7 hPa 0,0 l/m 0 min 0 min 0 W/m 6,3 km/h (2 Bft) 95,74 %
28.05.2017 04:02 19,1 C 17,8 C 16,7 C 84 % 0 lf 1016,7 hPa 0,0 l/m 0 min 0 min 0 W/m 6,3 km/h (2 Bft) 92,59 %
28.05.2017 04:04 19,1 C 17,8 C 16,1 C 84 % 0 lf 1016,8 hPa 0,0 l/m 0 min 0 min 0 W/m 8,4 km/h (2 Bft) 95,74 %
28.05.2017 04:06 19,0 C 17,8 C 16,1 C 84 % 0 lf 1016,7 hPa 0,0 l/m 0 min 0 min 0 W/m 8,4 km/h (2 Bft) 95,65 %
28.05.2017 04:08 19,0 C 18,3 C 16,7 C 84 % 0 lf 1016,5 hPa 0,0 l/m 0 min 0 min 0 W/m 6,3 km/h (2 Bft) 95,74 %
28.05.2017 04:10 18,9 C 18,3 C 16,7 C 84 % 0 lf 1016,6 hPa 0,0 l/m 0 min 0 min 0 W/m 4,2 km/h (1 Bft) 91,49 %
28.05.2017 04:12 18,9 C 18,3 C 16,7 C 84 % 0 lf 1016,6 hPa 0,0 l/m 0 min 0 min 0 W/m 4,2 km/h (1 Bft) 97,87 %
28.05.2017 04:14 18,9 C 18,3 C 16,7 C 84 % 0 lf 1016,5 hPa 0,0 l/m 0 min 0 min 0 W/m 4,2 km/h (1 Bft) 93,62 %
28.05.2017 04:16 18,9 C 18,3 C 16,7 C 84 % 0 lf 1016,5 hPa 0,0 l/m 0 min 0 min 0 W/m 6,3 km/h (2 Bft) 97,83 %
28.05.2017 04:18 18,8 C 18,3 C 16,7 C 84 % 0 lf 1016,4 hPa 0,0 l/m 0 min 0 min 0 W/m 4,2 km/h (1 Bft) 95,74 %
28.05.2017 04:20 18,8 C 18,3 C 16,7 C 84 % 0 lf 1016,5 hPa 0,0 l/m 0 min 0 min 0 W/m 6,3 km/h (2 Bft) 97,87 %
28.05.2017 04:22 18,8 C 18,3 C 16,7 C 84 % 0 lf 1016,5 hPa 0,0 l/m 0 min 0 min 0 W/m 4,2 km/h (1 Bft) 100,00 %
28.05.2017 04:24 18,8 C 18,3 C 16,7 C 85 % 0 lf 1016,5 hPa 0,0 l/m 0 min 0 min 0 W/m 2,1 km/h (1 Bft) 97,87 %
28.05.2017 04:26 18,8 C 18,3 C 16,7 C 85 % 0 lf 1016,6 hPa 0,0 l/m 0 min 0 min 0 W/m 2,1 km/h (1 Bft) 97,87 %
28.05.2017 04:28 18,7 C 17,8 C 16,7 C 85 % 0 lf 1016,5 hPa 0,0 l/m 0 min 0 min 0 W/m 0,0 km/h (0 Bft) 93,48 %
28.05.2017 04:30 18,7 C 18,3 C 16,7 C 85 % 0 lf 1016,6 hPa 0,0 l/m 0 min 0 min 0 W/m 4,2 km/h (1 Bft) 100,00 %
28.05.2017 04:32 18,7 C 18,3 C 16,7 C 85 % 0 lf 1016,6 hPa 0,0 l/m 0 min 0 min 0 W/m 6,3 km/h (2 Bft) 100,00 %
28.05.2017 04:34 18,7 C 18,3 C 16,7 C 85 % 0 lf 1016,7 hPa 0,0 l/m 0 min 0 min 0 W/m 6,3 km/h (2 Bft) 100,00 %
28.05.2017 04:36 18,7 C 18,3 C 16,7 C 85 % 0 lf 1016,7 hPa 0,0 l/m 0 min 0 min 0 W/m 8,4 km/h (2 Bft) 97,87 %
28.05.2017 04:38 18,7 C 18,3 C 16,7 C 85 % 0 lf 1016,7 hPa 0,0 l/m 0 min 0 min 0 W/m 6,3 km/h (2 Bft) 97,87 %
28.05.2017 04:40 18,7 C 18,3 C 16,7 C 85 % 0 lf 1016,7 hPa 0,0 l/m 0 min 0 min 0 W/m 6,3 km/h (2 Bft) 95,65 %
28.05.2017 04:42 18,7 C 18,3 C 16,7 C 85 % 0 lf 1016,8 hPa 0,0 l/m 0 min 0 min 0 W/m 10,5 km/h (2 Bft) 100,00 %
28.05.2017 04:44 18,7 C 18,3 C 16,7 C 85 % 0 lf 1016,7 hPa 0,0 l/m 0 min 0 min 0 W/m 8,4 km/h (2 Bft) 100,00 %
28.05.2017 04:46 18,7 C 18,3 C 16,7 C 85 % 0 lf 1016,8 hPa 0,0 l/m 0 min 0 min 0 W/m 8,4 km/h (2 Bft) 97,87 %
28.05.2017 04:48 18,7 C 18,3 C 16,7 C 86 % 0 lf 1016,8 hPa 0,0 l/m 0 min 0 min 0 W/m 10,5 km/h (2 Bft) 100,00 %
28.05.2017 04:50 18,7 C 18,3 C 16,7 C 86 % 0 lf 1016,8 hPa 0,0 l/m 0 min 0 min 0 W/m 8,4 km/h (2 Bft) 100,00 %
28.05.2017 04:52 18,7 C 18,3 C 16,7 C 86 % 0 lf 1016,8 hPa 0,0 l/m 0 min 0 min 0 W/m 6,3 km/h (2 Bft) 95,74 %
28.05.2017 04:54 18,7 C 18,3 C 16,7 C 86 % 0 lf 1016,8 hPa 0,0 l/m 0 min 0 min 0 W/m 8,4 km/h (2 Bft) 100,00 %
28.05.2017 04:56 18,7 C 18,3 C 16,7 C 86 % 0 lf 1016,8 hPa 0,0 l/m 0 min 0 min 0 W/m 6,3 km/h (2 Bft) 100,00 %
28.05.2017 04:58 18,7 C 18,3 C 16,7 C 86 % 1 lf 1016,8 hPa 0,0 l/m 0 min 0 min 0 W/m 6,3 km/h (2 Bft) 100,00 %
28.05.2017 05:00 18,7 C 18,3 C 16,7 C 86 % 1 lf 1016,8 hPa 0,0 l/m 0 min 0 min 0 W/m 6,3 km/h (2 Bft) 97,87 %
28.05.2017 05:02 18,7 C 18,3 C 16,7 C 87 % 1 lf 1016,9 hPa 0,0 l/m 0 min 0 min 0 W/m 6,3 km/h (2 Bft) 93,88 %
28.05.2017 05:04 18,6 C 18,3 C 16,7 C 87 % 1 lf 1016,9 hPa 0,0 l/m 0 min 0 min 0 W/m 4,2 km/h (1 Bft) 97,87 %
28.05.2017 05:06 18,6 C 18,3 C 16,7 C 87 % 1 lf 1016,8 hPa 0,0 l/m 0 min 0 min 0 W/m 4,2 km/h (1 Bft) 97,83 %
28.05.2017 05:08 18,6 C 18,3 C 16,1 C 86 % 1 lf 1016,8 hPa 0,0 l/m 0 min 0 min 0 W/m 4,2 km/h (1 Bft) 97,87 %
28.05.2017 05:10 18,6 C 17,8 C 16,1 C 87 % 1 lf 1016,8 hPa 0,0 l/m 0 min 0 min 0 W/m 4,2 km/h (1 Bft) 97,87 %
28.05.2017 05:12 18,6 C 17,8 C 16,1 C 87 % 1 lf 1016,8 hPa 0,0 l/m 0 min 0 min 0 W/m 4,2 km/h (1 Bft) 97,92 %
28.05.2017 05:14 18,6 C 17,8 C 16,1 C 86 % 1 lf 1016,8 hPa 0,0 l/m 0 min 0 min 3 W/m 6,3 km/h (2 Bft) 97,87 %
28.05.2017 05:16 18,6 C 17,8 C 16,1 C 87 % 1 lf 1016,9 hPa 0,0 l/m 0 min 0 min 5 W/m 4,2 km/h (1 Bft) 97,87 %
28.05.2017 05:18 18,6 C 17,8 C 16,1 C 87 % 1 lf 1016,9 hPa 0,0 l/m 0 min 0 min 5 W/m 6,3 km/h (2 Bft) 97,83 %
28.05.2017 05:20 18,6 C 17,8 C 16,1 C 87 % 1 lf 1017,0 hPa 0,0 l/m 0 min 0 min 5 W/m 4,2 km/h (1 Bft) 93,62 %
28.05.2017 05:22 18,6 C 17,8 C 16,1 C 87 % 1 lf 1017,1 hPa 0,0 l/m 0 min 0 min 5 W/m 4,2 km/h (1 Bft) 97,87 %
28.05.2017 05:24 18,6 C 17,8 C 16,1 C 86 % 1 lf 1017,2 hPa 0,0 l/m 0 min 0 min 5 W/m 4,2 km/h (1 Bft) 97,87 %
28.05.2017 05:26 18,6 C 17,8 C 16,1 C 86 % 1 lf 1017,3 hPa 0,0 l/m 0 min 0 min 5 W/m 6,3 km/h (2 Bft) 97,87 %
28.05.2017 05:28 18,5 C 17,8 C 16,1 C 87 % 1 lf 1017,3 hPa 0,0 l/m 0 min 0 min 7 W/m 6,3 km/h (2 Bft) 95,74 %
28.05.2017 05:30 18,5 C 17,8 C 16,1 C 87 % 1 lf 1017,4 hPa 0,0 l/m 0 min 0 min 7 W/m 6,3 km/h (2 Bft) 97,83 %
28.05.2017 05:32 18,5 C 17,8 C 16,1 C 87 % 1 lf 1017,4 hPa 0,0 l/m 0 min 0 min 7 W/m 6,3 km/h (2 Bft) 97,92 %
28.05.2017 05:34 18,5 C 17,8 C 16,1 C 87 % 1 lf 1017,4 hPa 0,0 l/m 0 min 0 min 7 W/m 6,3 km/h (2 Bft) 97,87 %
28.05.2017 05:36 18,4 C 17,8 C 16,1 C 87 % 1 lf 1017,3 hPa 0,0 l/m 0 min 0 min 9 W/m 6,3 km/h (2 Bft) 100,00 %
28.05.2017 05:38 18,4 C 17,8 C 16,1 C 87 % 1 lf 1017,4 hPa 0,0 l/m 0 min 0 min 9 W/m 8,4 km/h (2 Bft) 97,87 %
28.05.2017 05:40 18,4 C 17,8 C 16,1 C 87 % 1 lf 1017,4 hPa 0,0 l/m 0 min 0 min 10 W/m 8,4 km/h (2 Bft) 100,00 %
28.05.2017 05:42 18,4 C 17,8 C 16,1 C 87 % 1 lf 1017,4 hPa 0,0 l/m 0 min 0 min 11 W/m 6,3 km/h (2 Bft) 100,00 %
28.05.2017 05:44 18,4 C 17,8 C 16,7 C 87 % 1 lf 1017,3 hPa 0,0 l/m 0 min 0 min 12 W/m 4,2 km/h (1 Bft) 97,87 %
28.05.2017 05:46 18,4 C 17,8 C 16,7 C 88 % 1 lf 1017,4 hPa 0,0 l/m 0 min 0 min 12 W/m 6,3 km/h (2 Bft) 100,00 %
28.05.2017 05:48 18,4 C 17,8 C 16,7 C 88 % 1 lf 1017,4 hPa 0,0 l/m 0 min 0 min 12 W/m 6,3 km/h (2 Bft) 100,00 %
28.05.2017 05:50 18,4 C 17,8 C 16,7 C 88 % 1 lf 1017,4 hPa 0,0 l/m 0 min 0 min 11 W/m 8,4 km/h (2 Bft) 97,87 %
28.05.2017 05:52 18,4 C 17,8 C 16,7 C 88 % 1 lf 1017,4 hPa 0,0 l/m 0 min 0 min 11 W/m 10,5 km/h (2 Bft) 97,83 %
28.05.2017 05:54 18,4 C 18,3 C 16,7 C 88 % 1 lf 1017,4 hPa 0,0 l/m 0 min 0 min 11 W/m 8,4 km/h (2 Bft) 95,74 %
28.05.2017 05:56 18,4 C 18,3 C 16,7 C 88 % 1 lf 1017,4 hPa 0,0 l/m 0 min 0 min 11 W/m 6,3 km/h (2 Bft) 95,74 %
28.05.2017 05:58 18,4 C 18,3 C 16,7 C 88 % 1 lf 1017,4 hPa 0,0 l/m 0 min 0 min 11 W/m 10,5 km/h (2 Bft) 97,87 %
28.05.2017 06:00 18,4 C 18,3 C 16,7 C 88 % 0 lf 1017,4 hPa 0,0 l/m 0 min 0 min 11 W/m 12,6 km/h (3 Bft) 91,49 %
28.05.2017 06:02 18,4 C 18,3 C 16,7 C 89 % 0 lf 1017,4 hPa 0,0 l/m 0 min 0 min 12 W/m 8,4 km/h (2 Bft) 97,87 %
28.05.2017 06:04 18,4 C 18,3 C 16,7 C 89 % 0 lf 1017,3 hPa 0,0 l/m 0 min 0 min 12 W/m 10,5 km/h (2 Bft) 97,87 %
28.05.2017 06:06 18,4 C 18,3 C 16,7 C 89 % 0 lf 1017,3 hPa 0,0 l/m 0 min 0 min 14 W/m 8,4 km/h (2 Bft) 95,74 %
28.05.2017 06:08 18,4 C 18,3 C 16,7 C 89 % 0 lf 1017,4 hPa 0,0 l/m 0 min 0 min 16 W/m 10,5 km/h (2 Bft) 100,00 %
28.05.2017 06:10 18,4 C 18,3 C 16,7 C 89 % 0 lf 1017,4 hPa 0,0 l/m 0 min 0 min 18 W/m 6,3 km/h (2 Bft) 95,74 %
28.05.2017 06:12 18,4 C 18,3 C 16,7 C 89 % 0 lf 1017,4 hPa 0,0 l/m 0 min 0 min 20 W/m 6,3 km/h (2 Bft) 93,62 %
28.05.2017 06:14 18,4 C 18,3 C 17,2 C 89 % 0 lf 1017,4 hPa 0,0 l/m 0 min 0 min 21 W/m 6,3 km/h (2 Bft) 95,65 %
28.05.2017 06:16 18,4 C 18,3 C 17,2 C 88 % 0 lf 1017,3 hPa 0,0 l/m 0 min 0 min 23 W/m 6,3 km/h (2 Bft) 95,74 %
28.05.2017 06:18 18,4 C 18,3 C 17,2 C 88 % 0 lf 1017,4 hPa 0,0 l/m 0 min 0 min 23 W/m 8,4 km/h (2 Bft) 91,49 %
28.05.2017 06:20 18,4 C 18,3 C 17,2 C 88 % 0 lf 1017,4 hPa 0,0 l/m 0 min 0 min 22 W/m 8,4 km/h (2 Bft) 93,62 %
28.05.2017 06:22 18,4 C 18,3 C 17,2 C 88 % 0 lf 1017,4 hPa 0,0 l/m 0 min 0 min 21 W/m 4,2 km/h (1 Bft) 95,74 %
28.05.2017 06:24 18,4 C 18,3 C 17,2 C 88 % 0 lf 1017,3 hPa 0,0 l/m 0 min 0 min 19 W/m 6,3 km/h (2 Bft) 95,74 %
28.05.2017 06:26 18,4 C 18,3 C 17,2 C 88 % 0 lf 1017,4 hPa 0,0 l/m 0 min 0 min 19 W/m 4,2 km/h (1 Bft) 93,48 %
28.05.2017 06:28 18,3 C 18,3 C 17,2 C 88 % 0 lf 1017,3 hPa 0,0 l/m 0 min 0 min 18 W/m 4,2 km/h (1 Bft) 91,49 %
28.05.2017 06:30 18,3 C 18,3 C 17,2 C 88 % 0 lf 1017,3 hPa 0,0 l/m 0 min 0 min 18 W/m 2,1 km/h (1 Bft) 93,62 %
28.05.2017 06:32 18,3 C 18,3 C 16,7 C 88 % 0 lf 1017,3 hPa 0,0 l/m 0 min 0 min 18 W/m 6,3 km/h (2 Bft) 91,49 %
28.05.2017 06:34 18,3 C 18,3 C 16,7 C 88 % 0 lf 1017,4 hPa 0,0 l/m 0 min 0 min 18 W/m 4,2 km/h (1 Bft) 93,62 %
28.05.2017 06:36 18,3 C 18,3 C 16,7 C 88 % 0 lf 1017,3 hPa 0,0 l/m 0 min 0 min 19 W/m 6,3 km/h (2 Bft) 93,62 %
28.05.2017 06:38 18,3 C 18,3 C 17,2 C 88 % 0 lf 1017,3 hPa 0,0 l/m 0 min 0 min 20 W/m 4,2 km/h (1 Bft) 93,48 %
28.05.2017 06:40 18,3 C 18,3 C 17,2 C 87 % 0 lf 1017,3 hPa 0,0 l/m 0 min 0 min 23 W/m 4,2 km/h (1 Bft) 93,62 %
28.05.2017 06:42 18,3 C 18,3 C 17,2 C 87 % 0 lf 1017,3 hPa 0,0 l/m 0 min 0 min 25 W/m 8,4 km/h (2 Bft) 91,49 %
28.05.2017 06:44 18,3 C 18,3 C 17,2 C 87 % 0 lf 1017,4 hPa 0,0 l/m 0 min 0 min 26 W/m 8,4 km/h (2 Bft) 91,49 %
28.05.2017 06:46 18,3 C 18,3 C 17,2 C 87 % 0 lf 1017,4 hPa 0,0 l/m 0 min 0 min 24 W/m 4,2 km/h (1 Bft) 93,62 %
28.05.2017 06:48 18,3 C 18,3 C 17,2 C 87 % 0 lf 1017,5 hPa 0,0 l/m 0 min 0 min 22 W/m 4,2 km/h (1 Bft) 93,62 %
28.05.2017 06:50 18,3 C 18,3 C 17,2 C 87 % 0 lf 1017,5 hPa 0,0 l/m 0 min 0 min 20 W/m 2,1 km/h (1 Bft) 89,13 %
28.05.2017 06:52 18,3 C 18,3 C 17,2 C 87 % 0 lf 1017,5 hPa 0,0 l/m 0 min 0 min 19 W/m 4,2 km/h (1 Bft) 95,74 %
28.05.2017 06:54 18,3 C 18,3 C 17,2 C 87 % 0 lf 1017,4 hPa 0,0 l/m 0 min 0 min 18 W/m 4,2 km/h (1 Bft) 95,74 %
28.05.2017 06:56 18,3 C 18,3 C 17,2 C 87 % 0 lf 1017,3 hPa 0,0 l/m 0 min 0 min 16 W/m 6,3 km/h (2 Bft) 95,74 %
28.05.2017 06:58 18,3 C 18,3 C 17,2 C 87 % 0 lf 1017,3 hPa 0,0 l/m 0 min 0 min 16 W/m 4,2 km/h (1 Bft) 91,49 %
28.05.2017 07:00 18,3 C 18,3 C 17,2 C 87 % 0 lf 1017,4 hPa 0,0 l/m 0 min 0 min 14 W/m 2,1 km/h (1 Bft) 89,36 %
28.05.2017 07:02 18,3 C 18,3 C 17,2 C 87 % 0 lf 1017,5 hPa 0,0 l/m 0 min 0 min 13 W/m 4,2 km/h (1 Bft) 92,45 %
28.05.2017 07:04 18,3 C 18,3 C 17,2 C 87 % 0 lf 1017,6 hPa 0,0 l/m 0 min 0 min 12 W/m 6,3 km/h (2 Bft) 91,30 %
28.05.2017 07:06 18,3 C 18,3 C 17,2 C 87 % 0 lf 1017,7 hPa 0,0 l/m 0 min 0 min 11 W/m 4,2 km/h (1 Bft) 90,00 %
28.05.2017 07:08 18,3 C 18,3 C 17,2 C 87 % 1 lf 1017,7 hPa 0,0 l/m 0 min 0 min 11 W/m 4,2 km/h (1 Bft) 95,74 %
28.05.2017 07:10 18,3 C 18,3 C 17,2 C 87 % 0 lf 1017,7 hPa 0,0 l/m 0 min 0 min 12 W/m 6,3 km/h (2 Bft) 91,49 %
28.05.2017 07:12 18,4 C 18,3 C 17,2 C 87 % 4 lf 1017,8 hPa 0,0 l/m 0 min 0 min 12 W/m 8,4 km/h (2 Bft) 93,75 %
28.05.2017 07:14 18,4 C 18,3 C 17,2 C 87 % 1 lf 1017,6 hPa 0,0 l/m 0 min 2 min 13 W/m 6,3 km/h (2 Bft) 95,65 %
28.05.2017 07:16 18,4 C 18,3 C 17,2 C 87 % 3 lf 1017,6 hPa 0,0 l/m 0 min 2 min 14 W/m 8,4 km/h (2 Bft) 97,87 %
28.05.2017 07:18 18,4 C 18,3 C 17,2 C 87 % 0 lf 1017,6 hPa 0,0 l/m 0 min 0 min 14 W/m 8,4 km/h (2 Bft) 97,87 %
28.05.2017 07:20 18,4 C 18,3 C 16,7 C 87 % 0 lf 1017,7 hPa 0,0 l/m 0 min 0 min 11 W/m 6,3 km/h (2 Bft) 97,87 %
28.05.2017 07:22 18,4 C 18,3 C 16,7 C 87 % 0 lf 1017,7 hPa 0,0 l/m 0 min 0 min 8 W/m 4,2 km/h (1 Bft) 95,74 %
28.05.2017 07:24 18,4 C 18,3 C 17,2 C 87 % 0 lf 1017,9 hPa 0,0 l/m 0 min 0 min 6 W/m 8,4 km/h (2 Bft) 97,87 %
28.05.2017 07:26 18,4 C 18,3 C 17,2 C 87 % 0 lf 1017,9 hPa 0,0 l/m 0 min 0 min 5 W/m 6,3 km/h (2 Bft) 97,83 %
28.05.2017 07:28 18,4 C 18,3 C 16,7 C 87 % 15 lf 1017,9 hPa 0,0 l/m 0 min 0 min 6 W/m 2,1 km/h (1 Bft) 97,87 %
28.05.2017 07:30 18,4 C 17,8 C 16,7 C 87 % 15 lf 1017,8 hPa 0,0 l/m 0 min 2 min 7 W/m 4,2 km/h (1 Bft) 97,87 %
28.05.2017 07:32 18,4 C 17,8 C 16,1 C 87 % 15 lf 1017,8 hPa 0,0 l/m 0 min 2 min 7 W/m 4,2 km/h (1 Bft) 97,92 %
28.05.2017 07:34 18,4 C 17,2 C 16,1 C 87 % 15 lf 1017,7 hPa 0,0 l/m 0 min 0 min 9 W/m 6,3 km/h (2 Bft) 97,87 %
28.05.2017 07:36 18,4 C 17,2 C 16,1 C 87 % 15 lf 1017,6 hPa 0,0 l/m 0 min 0 min 9 W/m 4,2 km/h (1 Bft) 97,14 %
28.05.2017 07:38 18,4 C 17,2 C 16,1 C 87 % 15 lf 1017,6 hPa 0,0 l/m 0 min 2 min 10 W/m 4,2 km/h (1 Bft) 100,00 %
28.05.2017 07:40 18,4 C 17,2 C 16,1 C 87 % 15 lf 1017,6 hPa 0,0 l/m 0 min 2 min 12 W/m 4,2 km/h (1 Bft) 97,87 %
28.05.2017 07:42 18,4 C 17,2 C 16,1 C 87 % 15 lf 1017,6 hPa 0,0 l/m 0 min 0 min 14 W/m 4,2 km/h (1 Bft) 100,00 %
28.05.2017 07:44 18,4 C 17,2 C 16,1 C 87 % 15 lf 1017,7 hPa 0,0 l/m 0 min 0 min 17 W/m 2,1 km/h (1 Bft) 100,00 %
28.05.2017 07:46 18,4 C 17,2 C 16,1 C 87 % 15 lf 1017,6 hPa 0,0 l/m 0 min 0 min 22 W/m 2,1 km/h (1 Bft) 95,74 %
28.05.2017 07:48 18,4 C 17,2 C 16,1 C 88 % 15 lf 1017,6 hPa 0,0 l/m 0 min 0 min 28 W/m 0,0 km/h (0 Bft) 97,83 %
28.05.2017 07:50 18,4 C 17,8 C 16,1 C 88 % 15 lf 1017,7 hPa 0,0 l/m 0 min 0 min 41 W/m 2,1 km/h (1 Bft) 95,74 %
28.05.2017 07:52 18,4 C 17,8 C 16,1 C 88 % 15 lf 1017,8 hPa 0,0 l/m 0 min 0 min 54 W/m 0,0 km/h (0 Bft) 97,87 %
28.05.2017 07:54 18,4 C 17,8 C 16,7 C 88 % 15 lf 1017,8 hPa 0,0 l/m 0 min 0 min 58 W/m 2,1 km/h (1 Bft) 100,00 %
28.05.2017 07:56 18,4 C 18,3 C 16,7 C 88 % 15 lf 1017,7 hPa 0,0 l/m 0 min 0 min 60 W/m 0,0 km/h (0 Bft) 100,00 %
28.05.2017 07:58 18,4 C 18,3 C 16,7 C 88 % 15 lf 1017,7 hPa 0,0 l/m 0 min 0 min 62 W/m 2,1 km/h (1 Bft) 100,00 %
28.05.2017 08:00 18,4 C 18,3 C 16,7 C 88 % 15 lf 1017,6 hPa 0,0 l/m 0 min 0 min 63 W/m 2,1 km/h (1 Bft) 100,00 %
28.05.2017 08:02 18,4 C 18,9 C 16,7 C 88 % 15 lf 1017,6 hPa 0,0 l/m 0 min 0 min 71 W/m 4,2 km/h (1 Bft) 97,87 %
28.05.2017 08:04 18,4 C 18,9 C 16,7 C 88 % 15 lf 1017,7 hPa 0,0 l/m 0 min 0 min 118 W/m 6,3 km/h (2 Bft) 97,87 %
28.05.2017 08:06 18,4 C 18,9 C 17,2 C 89 % 13 lf 1017,8 hPa 0,0 l/m 0 min 0 min 110 W/m 2,1 km/h (1 Bft) 100,00 %
28.05.2017 08:08 18,4 C 19,4 C 17,2 C 89 % 3 lf 1017,8 hPa 0,0 l/m 0 min 0 min 99 W/m 4,2 km/h (1 Bft) 100,00 %
28.05.2017 08:10 18,4 C 19,4 C 17,8 C 89 % 0 lf 1017,8 hPa 0,0 l/m 0 min 0 min 108 W/m 6,3 km/h (2 Bft) 100,00 %
28.05.2017 08:12 18,4 C 19,4 C 17,8 C 89 % 0 lf 1017,7 hPa 0,0 l/m 0 min 0 min 173 W/m 4,2 km/h (1 Bft) 100,00 %
28.05.2017 08:14 18,4 C 20,0 C 17,8 C 89 % 0 lf 1017,8 hPa 0,0 l/m 0 min 0 min 186 W/m 6,3 km/h (2 Bft) 100,00 %
28.05.2017 08:16 18,4 C 20,0 C 17,8 C 89 % 0 lf 1017,8 hPa 0,0 l/m 2 min 0 min 212 W/m 4,2 km/h (1 Bft) 100,00 %
28.05.2017 08:18 18,3 C 20,6 C 17,8 C 88 % 0 lf 1017,7 hPa 0,0 l/m 2 min 0 min 236 W/m 4,2 km/h (1 Bft) 100,00 %
28.05.2017 08:20 18,3 C 21,1 C 17,8 C 88 % 0 lf 1017,6 hPa 0,0 l/m 2 min 0 min 229 W/m 4,2 km/h (1 Bft) 97,87 %
28.05.2017 08:22 18,4 C 21,1 C 18,3 C 88 % 0 lf 1017,6 hPa 0,0 l/m 0 min 0 min 163 W/m 4,2 km/h (1 Bft) 100,00 %
28.05.2017 08:24 18,4 C 20,6 C 18,3 C 88 % 0 lf 1017,6 hPa 0,0 l/m 2 min 0 min 261 W/m 6,3 km/h (2 Bft) 97,83 %
28.05.2017 08:26 18,4 C 20,6 C 18,3 C 88 % 0 lf 1017,7 hPa 0,0 l/m 2 min 0 min 296 W/m 2,1 km/h (1 Bft) 100,00 %
28.05.2017 08:28 18,4 C 23,3 C 18,9 C 88 % 0 lf 1017,7 hPa 0,0 l/m 2 min 0 min 319 W/m 4,2 km/h (1 Bft) 97,87 %
28.05.2017 08:30 18,5 C 25,0 C 19,4 C 88 % 0 lf 1017,8 hPa 0,0 l/m 2 min 0 min 333 W/m 4,2 km/h (1 Bft) 97,87 %
28.05.2017 08:32 18,6 C 25,6 C 20,0 C 88 % 0 lf 1017,8 hPa 0,0 l/m 2 min 0 min 292 W/m 6,3 km/h (2 Bft) 96,23 %
28.05.2017 08:34 18,6 C 25,6 C 20,0 C 88 % 0 lf 1017,8 hPa 0,0 l/m 2 min 0 min 262 W/m 6,3 km/h (2 Bft) 100,00 %
28.05.2017 08:36 18,7 C 26,1 C 20,6 C 87 % 0 lf 1017,8 hPa 0,0 l/m 2 min 0 min 279 W/m 4,2 km/h (1 Bft) 100,00 %
28.05.2017 08:38 18,7 C 27,2 C 21,1 C 87 % 0 lf 1017,8 hPa 0,0 l/m 2 min 0 min 352 W/m 2,1 km/h (1 Bft) 97,87 %
28.05.2017 08:40 18,8 C 27,8 C 21,1 C 87 % 0 lf 1017,8 hPa 0,0 l/m 2 min 0 min 377 W/m 4,2 km/h (1 Bft) 100,00 %
28.05.2017 08:42 18,9 C 28,9 C 21,1 C 87 % 0 lf 1017,8 hPa 0,0 l/m 2 min 0 min 405 W/m 6,3 km/h (2 Bft) 97,92 %
28.05.2017 08:44 19,1 C 28,9 C 21,1 C 87 % 0 lf 1017,7 hPa 0,0 l/m 2 min 0 min 361 W/m 6,3 km/h (2 Bft) 95,74 %
28.05.2017 08:46 19,2 C 27,2 C 21,1 C 86 % 0 lf 1017,7 hPa 0,0 l/m 2 min 0 min 229 W/m 2,1 km/h (1 Bft) 97,87 %
28.05.2017 08:48 19,3 C 26,1 C 21,1 C 86 % 0 lf 1017,7 hPa 0,0 l/m 0 min 0 min 140 W/m 6,3 km/h (2 Bft) 100,00 %
28.05.2017 08:50 19,4 C 25,6 C 20,6 C 86 % 0 lf 1017,6 hPa 0,0 l/m 0 min 0 min 133 W/m 6,3 km/h (2 Bft) 100,00 %
28.05.2017 08:52 19,5 C 25,0 C 20,0 C 85 % 15 lf 1017,6 hPa 0,0 l/m 0 min 2 min 114 W/m 6,3 km/h (2 Bft) 97,87 %
28.05.2017 08:54 19,6 C 23,9 C 18,3 C 85 % 15 lf 1017,7 hPa 0,0 l/m 0 min 2 min 107 W/m 6,3 km/h (2 Bft) 100,00 %
28.05.2017 08:56 19,6 C 23,3 C 17,8 C 85 % 15 lf 1017,8 hPa 0,0 l/m 0 min 2 min 108 W/m 6,3 km/h (2 Bft) 95,74 %
28.05.2017 08:58 19,7 C 22,8 C 17,8 C 84 % 15 lf 1017,7 hPa 0,0 l/m 0 min 0 min 114 W/m 4,2 km/h (1 Bft) 97,87 %
28.05.2017 09:00 19,8 C 22,8 C 17,8 C 84 % 15 lf 1017,6 hPa 0,0 l/m 0 min 0 min 157 W/m 4,2 km/h (1 Bft) 95,74 %
28.05.2017 09:02 19,8 C 26,1 C 18,3 C 84 % 15 lf 1017,7 hPa 0,0 l/m 2 min 0 min 299 W/m 2,1 km/h (1 Bft) 97,87 %
28.05.2017 09:04 19,9 C 27,2 C 18,3 C 84 % 15 lf 1017,6 hPa 0,0 l/m 2 min 0 min 355 W/m 4,2 km/h (1 Bft) 97,87 %
28.05.2017 09:06 19,9 C 28,9 C 18,9 C 84 % 2 lf 1017,7 hPa 0,0 l/m 2 min 0 min 338 W/m 6,3 km/h (2 Bft) 97,22 %
28.05.2017 09:08 20,0 C 29,4 C 20,0 C 84 % 0 lf 1017,7 hPa 0,0 l/m 2 min 0 min 409 W/m 6,3 km/h (2 Bft) 97,87 %
28.05.2017 09:10 20,2 C 31,1 C 20,6 C 84 % 0 lf 1017,6 hPa 0,0 l/m 2 min 0 min 437 W/m 4,2 km/h (1 Bft) 97,83 %
28.05.2017 09:12 20,3 C 32,2 C 21,1 C 84 % 0 lf 1017,6 hPa 0,0 l/m 2 min 0 min 441 W/m 6,3 km/h (2 Bft) 97,87 %
28.05.2017 09:14 20,4 C 30,6 C 21,7 C 83 % 0 lf 1017,6 hPa 0,0 l/m 2 min 0 min 461 W/m 10,5 km/h (2 Bft) 93,62 %
28.05.2017 09:16 20,6 C 30,0 C 22,2 C 83 % 0 lf 1017,6 hPa 0,0 l/m 2 min 0 min 464 W/m 10,5 km/h (2 Bft) 93,62 %
28.05.2017 09:18 20,8 C 31,1 C 21,7 C 82 % 0 lf 1017,6 hPa 0,0 l/m 2 min 0 min 473 W/m 8,4 km/h (2 Bft) 89,36 %
28.05.2017 09:20 20,9 C 32,2 C 22,2 C 82 % 0 lf 1017,6 hPa 0,0 l/m 2 min 0 min 458 W/m 8,4 km/h (2 Bft) 91,49 %
28.05.2017 09:22 21,0 C 32,8 C 21,7 C 81 % 0 lf 1017,5 hPa 0,0 l/m 2 min 0 min 452 W/m 8,4 km/h (2 Bft) 91,30 %
28.05.2017 09:24 21,1 C 33,3 C 21,7 C 80 % 0 lf 1017,5 hPa 0,0 l/m 2 min 0 min 441 W/m 10,5 km/h (2 Bft) 91,49 %
28.05.2017 09:26 21,2 C 32,8 C 22,2 C 80 % 0 lf 1017,5 hPa 0,0 l/m 2 min 0 min 433 W/m 10,5 km/h (2 Bft) 87,23 %
28.05.2017 09:28 21,4 C 32,2 C 21,7 C 80 % 0 lf 1017,4 hPa 0,0 l/m 2 min 0 min 420 W/m 10,5 km/h (2 Bft) 91,49 %
28.05.2017 09:30 21,5 C 32,8 C 21,7 C 79 % 0 lf 1017,3 hPa 0,0 l/m 2 min 0 min 446 W/m 10,5 km/h (2 Bft) 91,49 %
28.05.2017 09:32 21,7 C 31,1 C 22,2 C 78 % 0 lf 1017,3 hPa 0,0 l/m 2 min 0 min 450 W/m 8,4 km/h (2 Bft) 91,49 %
28.05.2017 09:34 21,8 C 32,2 C 22,2 C 77 % 0 lf 1017,4 hPa 0,0 l/m 2 min 0 min 463 W/m 10,5 km/h (2 Bft) 91,30 %
28.05.2017 09:36 21,9 C 30,6 C 22,8 C 76 % 0 lf 1017,4 hPa 0,0 l/m 2 min 0 min 493 W/m 12,6 km/h (3 Bft) 94,55 %
28.05.2017 09:38 22,1 C 30,0 C 22,8 C 74 % 0 lf 1017,4 hPa 0,0 l/m 2 min 0 min 509 W/m 12,6 km/h (3 Bft) 93,62 %
28.05.2017 09:40 22,2 C 30,6 C 23,3 C 75 % 0 lf 1017,5 hPa 0,0 l/m 2 min 0 min 528 W/m 10,5 km/h (2 Bft) 91,49 %
28.05.2017 09:42 22,4 C 32,2 C 23,9 C 75 % 0 lf 1017,6 hPa 0,0 l/m 2 min 0 min 557 W/m 8,4 km/h (2 Bft) 89,58 %
28.05.2017 09:44 22,6 C 31,1 C 24,4 C 74 % 0 lf 1017,7 hPa 0,0 l/m 2 min 0 min 601 W/m 8,4 km/h (2 Bft) 93,62 %
28.05.2017 09:46 22,7 C 31,1 C 24,4 C 72 % 0 lf 1017,7 hPa 0,0 l/m 2 min 0 min 623 W/m 6,3 km/h (2 Bft) 93,62 %
28.05.2017 09:48 22,9 C 33,9 C 25,0 C 73 % 0 lf 1017,8 hPa 0,0 l/m 2 min 0 min 654 W/m 6,3 km/h (2 Bft) 93,48 %
28.05.2017 09:50 23,2 C 32,2 C 25,0 C 72 % 0 lf 1017,8 hPa 0,0 l/m 2 min 0 min 624 W/m 8,4 km/h (2 Bft) 91,49 %
28.05.2017 09:52 23,3 C 29,4 C 25,6 C 71 % 0 lf 1018,0 hPa 0,0 l/m 2 min 0 min 342 W/m 8,4 km/h (2 Bft) 93,62 %
28.05.2017 09:54 23,4 C 28,3 C 25,6 C 71 % 0 lf 1018,2 hPa 0,0 l/m 2 min 0 min 336 W/m 6,3 km/h (2 Bft) 91,49 %
28.05.2017 09:56 23,5 C 28,3 C 25,0 C 70 % 0 lf 1018,3 hPa 0,0 l/m 0 min 0 min 287 W/m 6,3 km/h (2 Bft) 91,49 %
28.05.2017 09:58 23,6 C 26,7 C 23,9 C 70 % 0 lf 1018,8 hPa 0,0 l/m 0 min 0 min 151 W/m 14,6 km/h (3 Bft) 97,83 %
28.05.2017 10:00 23,6 C 25,0 C 22,8 C 70 % 0 lf 1019,2 hPa 0,0 l/m 0 min 0 min 71 W/m 18,8 km/h (3 Bft) 95,74 %
28.05.2017 10:02 23,4 C 23,3 C 22,2 C 70 % 0 lf 1019,3 hPa 0,0 l/m 0 min 0 min 45 W/m 16,7 km/h (3 Bft) 91,67 %
28.05.2017 10:04 23,3 C 22,8 C 21,1 C 71 % 0 lf 1019,3 hPa 0,0 l/m 0 min 2 min 33 W/m 12,6 km/h (3 Bft) 95,74 %
28.05.2017 10:06 23,2 C 22,2 C 21,1 C 71 % 0 lf 1019,3 hPa 0,0 l/m 0 min 0 min 23 W/m 8,4 km/h (2 Bft) 93,62 %
28.05.2017 10:08 23,2 C 22,2 C 20,6 C 72 % 1 lf 1019,5 hPa 0,0 l/m 0 min 2 min 19 W/m 14,6 km/h (3 Bft) 95,74 %
28.05.2017 10:10 23,1 C 20,0 C 18,9 C 73 % 15 lf 1019,5 hPa 0,4 l/m 0 min 2 min 18 W/m 14,6 km/h (3 Bft) 95,65 %
28.05.2017 10:12 22,9 C 18,3 C 17,2 C 75 % 15 lf 1019,4 hPa 1,0 l/m 0 min 2 min 17 W/m 14,6 km/h (3 Bft) 93,75 %
28.05.2017 10:14 22,8 C 18,3 C 17,2 C 76 % 15 lf 1019,3 hPa 1,0 l/m 0 min 2 min 16 W/m 10,5 km/h (2 Bft) 95,74 %
28.05.2017 10:16 22,7 C 17,8 C 16,7 C 77 % 15 lf 1019,1 hPa 1,2 l/m 0 min 2 min 16 W/m 8,4 km/h (2 Bft) 95,74 %
28.05.2017 10:18 22,6 C 17,8 C 16,7 C 78 % 15 lf 1018,5 hPa 1,0 l/m 0 min 2 min 18 W/m 16,7 km/h (3 Bft) 100,00 %
28.05.2017 10:20 22,4 C 17,8 C 16,7 C 79 % 15 lf 1018,3 hPa 0,4 l/m 0 min 2 min 24 W/m 10,5 km/h (2 Bft) 97,87 %
28.05.2017 10:22 22,2 C 17,8 C 16,7 C 80 % 15 lf 1018,3 hPa 0,0 l/m 0 min 2 min 30 W/m 10,5 km/h (2 Bft) 95,65 %
28.05.2017 10:24 22,0 C 17,8 C 16,7 C 80 % 15 lf 1018,6 hPa 0,0 l/m 0 min 2 min 35 W/m 12,6 km/h (3 Bft) 97,87 %
28.05.2017 10:26 21,8 C 17,8 C 16,7 C 81 % 15 lf 1018,7 hPa 0,0 l/m 0 min 2 min 42 W/m 18,8 km/h (3 Bft) 100,00 %
28.05.2017 10:28 21,6 C 17,8 C 16,7 C 82 % 15 lf 1018,6 hPa 0,0 l/m 0 min 2 min 50 W/m 16,7 km/h (3 Bft) 100,00 %
28.05.2017 10:30 21,3 C 18,3 C 16,7 C 82 % 15 lf 1018,7 hPa 0,0 l/m 0 min 0 min 60 W/m 10,5 km/h (2 Bft) 97,87 %
28.05.2017 10:32 21,1 C 18,3 C 17,2 C 83 % 15 lf 1018,9 hPa 0,0 l/m 0 min 0 min 71 W/m 12,6 km/h (3 Bft) 100,00 %
28.05.2017 10:34 21,0 C 18,3 C 17,2 C 84 % 15 lf 1019,0 hPa 0,0 l/m 0 min 0 min 80 W/m 14,6 km/h (3 Bft) 95,74 %
28.05.2017 10:36 20,8 C 18,3 C 17,2 C 84 % 15 lf 1019,0 hPa 0,0 l/m 0 min 0 min 85 W/m 16,7 km/h (3 Bft) 100,00 %
28.05.2017 10:38 20,7 C 18,3 C 17,2 C 85 % 15 lf 1019,1 hPa 0,0 l/m 0 min 0 min 88 W/m 16,7 km/h (3 Bft) 100,00 %
28.05.2017 10:40 20,6 C 18,3 C 17,2 C 86 % 15 lf 1019,1 hPa 0,0 l/m 0 min 0 min 90 W/m 14,6 km/h (3 Bft) 97,87 %
28.05.2017 10:43 20,4 C 18,3 C 17,2 C 86 % 15 lf 1018,9 hPa 0,0 l/m 0 min 0 min 91 W/m 12,6 km/h (3 Bft) 98,70 %
28.05.2017 10:44 20,3 C 18,3 C 17,2 C 87 % 15 lf 1018,9 hPa 0,0 l/m 0 min 0 min 81 W/m 10,5 km/h (2 Bft) 100,00 %
28.05.2017 10:46 20,2 C 18,3 C 17,2 C 87 % 15 lf 1018,7 hPa 0,0 l/m 0 min 0 min 73 W/m 8,4 km/h (2 Bft) 100,00 %
28.05.2017 10:48 20,1 C 17,8 C 16,7 C 87 % 15 lf 1018,6 hPa 0,0 l/m 0 min 0 min 63 W/m 14,6 km/h (3 Bft) 95,74 %
28.05.2017 10:50 19,9 C 17,8 C 16,7 C 87 % 15 lf 1018,7 hPa 0,0 l/m 0 min 2 min 54 W/m 12,6 km/h (3 Bft) 100,00 %
28.05.2017 10:52 19,8 C 17,8 C 16,7 C 88 % 15 lf 1018,8 hPa 0,0 l/m 0 min 2 min 49 W/m 10,5 km/h (2 Bft) 97,87 %
28.05.2017 10:54 19,7 C 17,8 C 16,7 C 88 % 15 lf 1018,7 hPa 0,0 l/m 0 min 0 min 45 W/m 6,3 km/h (2 Bft) 97,87 %
28.05.2017 10:56 19,6 C 17,8 C 16,7 C 88 % 15 lf 1018,7 hPa 0,0 l/m 0 min 2 min 41 W/m 10,5 km/h (2 Bft) 100,00 %
28.05.2017 10:58 19,6 C 17,8 C 16,7 C 89 % 15 lf 1018,8 hPa 0,0 l/m 0 min 2 min 40 W/m 4,2 km/h (1 Bft) 100,00 %
28.05.2017 11:00 19,5 C 17,8 C 16,7 C 89 % 15 lf 1018,7 hPa 0,0 l/m 0 min 2 min 40 W/m 6,3 km/h (2 Bft) 100,00 %
28.05.2017 11:02 19,4 C 17,8 C 16,7 C 89 % 15 lf 1018,7 hPa 0,0 l/m 0 min 2 min 40 W/m 4,2 km/h (1 Bft) 95,92 %
28.05.2017 11:04 19,4 C 17,8 C 16,7 C 89 % 15 lf 1018,6 hPa 0,0 l/m 0 min 2 min 40 W/m 4,2 km/h (1 Bft) 95,74 %
28.05.2017 11:06 19,3 C 17,8 C 16,7 C 89 % 15 lf 1018,5 hPa 0,2 l/m 0 min 2 min 42 W/m 6,3 km/h (2 Bft) 97,87 %
28.05.2017 11:08 19,3 C 17,8 C 16,7 C 90 % 15 lf 1018,3 hPa 0,0 l/m 0 min 2 min 43 W/m 8,4 km/h (2 Bft) 97,87 %
28.05.2017 11:10 19,2 C 17,8 C 16,7 C 90 % 15 lf 1018,2 hPa 0,2 l/m 0 min 2 min 45 W/m 8,4 km/h (2 Bft) 97,83 %
28.05.2017 11:12 19,2 C 17,8 C 16,7 C 90 % 15 lf 1018,2 hPa 0,0 l/m 0 min 2 min 47 W/m 10,5 km/h (2 Bft) 95,83 %
28.05.2017 11:14 19,2 C 17,8 C 16,7 C 91 % 15 lf 1018,0 hPa 0,2 l/m 0 min 2 min 49 W/m 10,5 km/h (2 Bft) 95,74 %
28.05.2017 11:16 19,1 C 17,8 C 16,7 C 91 % 15 lf 1017,9 hPa 0,0 l/m 0 min 2 min 53 W/m 10,5 km/h (2 Bft) 95,74 %
28.05.2017 11:18 19,1 C 17,8 C 16,7 C 91 % 15 lf 1017,8 hPa 0,0 l/m 0 min 2 min 59 W/m 8,4 km/h (2 Bft) 95,74 %
28.05.2017 11:20 19,0 C 17,8 C 16,7 C 91 % 15 lf 1017,9 hPa 0,0 l/m 0 min 2 min 65 W/m 14,6 km/h (3 Bft) 97,83 %
28.05.2017 11:22 18,9 C 17,8 C 16,7 C 91 % 15 lf 1017,9 hPa 0,2 l/m 0 min 2 min 74 W/m 12,6 km/h (3 Bft) 97,87 %
28.05.2017 11:24 18,9 C 17,8 C 16,7 C 92 % 15 lf 1017,8 hPa 0,0 l/m 0 min 2 min 86 W/m 10,5 km/h (2 Bft) 95,74 %
28.05.2017 11:26 18,8 C 17,8 C 16,7 C 92 % 15 lf 1017,8 hPa 0,0 l/m 0 min 2 min 97 W/m 8,4 km/h (2 Bft) 97,87 %
28.05.2017 11:28 18,8 C 18,3 C 17,2 C 92 % 15 lf 1017,7 hPa 0,0 l/m 0 min 2 min 111 W/m 6,3 km/h (2 Bft) 95,74 %
28.05.2017 11:30 18,8 C 18,3 C 17,2 C 92 % 15 lf 1017,6 hPa 0,0 l/m 0 min 2 min 124 W/m 6,3 km/h (2 Bft) 95,74 %
28.05.2017 11:32 18,8 C 18,3 C 17,2 C 92 % 15 lf 1017,5 hPa 0,0 l/m 0 min 2 min 137 W/m 10,5 km/h (2 Bft) 95,74 %
28.05.2017 11:34 18,8 C 18,3 C 17,2 C 92 % 15 lf 1017,4 hPa 0,0 l/m 0 min 2 min 146 W/m 14,6 km/h (3 Bft) 97,87 %
28.05.2017 11:36 18,8 C 18,9 C 17,8 C 93 % 15 lf 1017,4 hPa 0,0 l/m 0 min 2 min 153 W/m 12,6 km/h (3 Bft) 100,00 %
28.05.2017 11:38 18,8 C 18,9 C 17,8 C 93 % 15 lf 1017,3 hPa 0,0 l/m 0 min 2 min 155 W/m 12,6 km/h (3 Bft) 100,00 %
28.05.2017 11:40 18,8 C 18,3 C 17,8 C 93 % 15 lf 1017,3 hPa 0,0 l/m 0 min 2 min 159 W/m 14,6 km/h (3 Bft) 100,00 %
28.05.2017 11:42 18,8 C 18,3 C 17,2 C 93 % 15 lf 1017,2 hPa 0,0 l/m 0 min 0 min 169 W/m 14,6 km/h (3 Bft) 100,00 %
28.05.2017 11:44 18,8 C 18,3 C 17,2 C 93 % 15 lf 1017,2 hPa 0,0 l/m 0 min 0 min 178 W/m 16,7 km/h (3 Bft) 95,74 %
28.05.2017 11:46 18,8 C 18,3 C 17,8 C 93 % 15 lf 1017,2 hPa 0,0 l/m 0 min 0 min 185 W/m 12,6 km/h (3 Bft) 100,00 %
28.05.2017 11:48 18,8 C 18,9 C 17,8 C 93 % 15 lf 1017,2 hPa 0,0 l/m 0 min 0 min 192 W/m 14,6 km/h (3 Bft) 100,00 %
28.05.2017 11:50 18,8 C 18,9 C 17,8 C 94 % 15 lf 1017,3 hPa 0,0 l/m 0 min 2 min 203 W/m 10,5 km/h (2 Bft) 97,87 %
28.05.2017 11:52 18,8 C 19,4 C 18,3 C 94 % 15 lf 1017,3 hPa 0,0 l/m 0 min 2 min 224 W/m 6,3 km/h (2 Bft) 100,00 %
28.05.2017 11:54 18,8 C 20,0 C 18,9 C 94 % 15 lf 1017,5 hPa 0,0 l/m 0 min 2 min 253 W/m 6,3 km/h (2 Bft) 100,00 %
28.05.2017 11:56 18,8 C 20,0 C 18,9 C 94 % 15 lf 1017,5 hPa 0,0 l/m 0 min 2 min 275 W/m 2,1 km/h (1 Bft) 93,62 %
28.05.2017 11:58 18,9 C 20,6 C 18,9 C 94 % 15 lf 1017,6 hPa 0,0 l/m 0 min 2 min 298 W/m 4,2 km/h (1 Bft) 97,87 %
28.05.2017 12:00 18,9 C 20,0 C 19,4 C 94 % 15 lf 1017,6 hPa 0,0 l/m 0 min 0 min 303 W/m 4,2 km/h (1 Bft) 93,62 %
28.05.2017 12:02 19,0 C 20,6 C 19,4 C 95 % 15 lf 1017,5 hPa 0,0 l/m 0 min 0 min 309 W/m 6,3 km/h (2 Bft) 94,29 %
28.05.2017 12:04 19,1 C 20,6 C 19,4 C 95 % 15 lf 1017,5 hPa 0,0 l/m 0 min 0 min 321 W/m 6,3 km/h (2 Bft) 97,87 %
28.05.2017 12:06 19,1 C 21,1 C 20,0 C 95 % 15 lf 1017,4 hPa 0,0 l/m 0 min 0 min 356 W/m 10,5 km/h (2 Bft) 97,83 %
28.05.2017 12:08 19,2 C 22,2 C 21,1 C 95 % 15 lf 1017,4 hPa 0,0 l/m 2 min 0 min 412 W/m 10,5 km/h (2 Bft) 95,74 %
28.05.2017 12:10 19,4 C 22,8 C 21,7 C 95 % 15 lf 1017,3 hPa 0,0 l/m 0 min 0 min 398 W/m 8,4 km/h (2 Bft) 95,74 %
28.05.2017 12:12 19,5 C 22,2 C 21,7 C 96 % 15 lf 1017,3 hPa 0,0 l/m 0 min 0 min 390 W/m 12,6 km/h (3 Bft) 97,87 %
28.05.2017 12:14 19,6 C 21,7 C 21,1 C 96 % 15 lf 1017,2 hPa 0,0 l/m 0 min 0 min 333 W/m 16,7 km/h (3 Bft) 97,87 %
28.05.2017 12:16 19,7 C 21,1 C 20,6 C 96 % 15 lf 1017,2 hPa 0,0 l/m 0 min 0 min 313 W/m 10,5 km/h (2 Bft) 95,74 %
28.05.2017 12:18 19,7 C 21,1 C 20,6 C 96 % 15 lf 1017,3 hPa 0,0 l/m 0 min 0 min 332 W/m 10,5 km/h (2 Bft) 95,65 %
28.05.2017 12:20 19,7 C 22,2 C 21,1 C 95 % 15 lf 1017,4 hPa 0,0 l/m 0 min 0 min 346 W/m 12,6 km/h (3 Bft) 93,62 %
28.05.2017 12:22 19,8 C 22,2 C 21,1 C 95 % 15 lf 1017,5 hPa 0,0 l/m 0 min 0 min 334 W/m 10,5 km/h (2 Bft) 95,74 %
28.05.2017 12:24 19,9 C 21,7 C 21,1 C 96 % 15 lf 1017,6 hPa 0,0 l/m 0 min 0 min 360 W/m 12,6 km/h (3 Bft) 87,23 %
28.05.2017 12:26 19,9 C 22,2 C 21,1 C 95 % 15 lf 1017,7 hPa 0,0 l/m 0 min 2 min 390 W/m 8,4 km/h (2 Bft) 93,62 %
28.05.2017 12:28 20,0 C 21,7 C 21,1 C 95 % 15 lf 1017,8 hPa 0,0 l/m 0 min 0 min 371 W/m 8,4 km/h (2 Bft) 95,65 %
28.05.2017 12:30 20,1 C 23,3 C 21,7 C 95 % 15 lf 1017,8 hPa 0,0 l/m 0 min 0 min 380 W/m 10,5 km/h (2 Bft) 95,74 %
28.05.2017 12:32 20,2 C 23,9 C 22,8 C 95 % 13 lf 1017,8 hPa 0,0 l/m 2 min 0 min 590 W/m 10,5 km/h (2 Bft) 91,49 %
28.05.2017 12:34 20,3 C 24,4 C 23,3 C 96 % 12 lf 1017,7 hPa 0,0 l/m 2 min 0 min 823 W/m 6,3 km/h (2 Bft) 93,62 %
28.05.2017 12:36 20,4 C 23,9 C 22,8 C 95 % 7 lf 1017,7 hPa 0,0 l/m 2 min 0 min 580 W/m 6,3 km/h (2 Bft) 94,44 %
28.05.2017 12:38 20,4 C 23,3 C 22,8 C 95 % 2 lf 1017,7 hPa 0,0 l/m 2 min 0 min 499 W/m 6,3 km/h (2 Bft) 95,74 %
28.05.2017 12:40 20,6 C 23,3 C 23,3 C 95 % 1 lf 1017,7 hPa 0,0 l/m 2 min 0 min 478 W/m 4,2 km/h (1 Bft) 93,62 %
28.05.2017 12:42 20,7 C 23,9 C 23,3 C 95 % 0 lf 1017,7 hPa 0,0 l/m 2 min 0 min 436 W/m 10,5 km/h (2 Bft) 97,92 %
28.05.2017 12:44 20,7 C 23,9 C 23,3 C 95 % 0 lf 1017,7 hPa 0,0 l/m 2 min 0 min 457 W/m 6,3 km/h (2 Bft) 95,65 %
28.05.2017 12:46 20,8 C 23,9 C 23,3 C 95 % 0 lf 1017,6 hPa 0,0 l/m 2 min 0 min 456 W/m 8,4 km/h (2 Bft) 93,62 %
28.05.2017 12:48 20,9 C 23,9 C 23,3 C 94 % 0 lf 1017,6 hPa 0,0 l/m 2 min 0 min 440 W/m 6,3 km/h (2 Bft) 93,62 %
28.05.2017 12:50 20,9 C 24,4 C 23,3 C 94 % 0 lf 1017,6 hPa 0,0 l/m 2 min 0 min 494 W/m 6,3 km/h (2 Bft) 95,74 %
28.05.2017 12:52 21,1 C 25,6 C 23,3 C 94 % 0 lf 1017,6 hPa 0,0 l/m 2 min 0 min 533 W/m 8,4 km/h (2 Bft) 95,83 %
28.05.2017 12:54 21,2 C 28,3 C 23,9 C 93 % 0 lf 1017,6 hPa 0,0 l/m 2 min 0 min 495 W/m 8,4 km/h (2 Bft) 93,48 %
28.05.2017 12:56 21,3 C 29,4 C 24,4 C 93 % 0 lf 1017,5 hPa 0,0 l/m 2 min 0 min 503 W/m 6,3 km/h (2 Bft) 97,87 %
28.05.2017 12:58 21,6 C 28,9 C 25,0 C 93 % 0 lf 1017,5 hPa 0,0 l/m 2 min 0 min 521 W/m 8,4 km/h (2 Bft) 93,62 %
28.05.2017 13:00 21,7 C 28,3 C 25,0 C 93 % 0 lf 1017,5 hPa 0,0 l/m 2 min 0 min 489 W/m 8,4 km/h (2 Bft) 93,62 %
28.05.2017 13:02 21,8 C 29,4 C 25,6 C 92 % 0 lf 1017,5 hPa 0,0 l/m 2 min 0 min 532 W/m 10,5 km/h (2 Bft) 91,84 %
28.05.2017 13:04 21,9 C 29,4 C 25,6 C 91 % 0 lf 1017,5 hPa 0,0 l/m 2 min 0 min 557 W/m 8,4 km/h (2 Bft) 93,62 %
28.05.2017 13:06 22,1 C 28,9 C 26,1 C 90 % 0 lf 1017,5 hPa 0,0 l/m 2 min 0 min 504 W/m 8,4 km/h (2 Bft) 91,43 %
28.05.2017 13:08 22,3 C 30,6 C 26,7 C 90 % 0 lf 1017,5 hPa 0,0 l/m 2 min 0 min 501 W/m 10,5 km/h (2 Bft) 91,49 %
28.05.2017 13:10 22,4 C 30,0 C 26,7 C 89 % 0 lf 1017,4 hPa 0,0 l/m 2 min 0 min 802 W/m 8,4 km/h (2 Bft) 93,62 %
28.05.2017 13:12 22,5 C 31,7 C 26,7 C 88 % 0 lf 1017,4 hPa 0,0 l/m 2 min 0 min 886 W/m 10,5 km/h (2 Bft) 91,49 %
28.05.2017 13:14 22,7 C 30,6 C 26,7 C 87 % 0 lf 1017,4 hPa 0,0 l/m 2 min 0 min 698 W/m 12,6 km/h (3 Bft) 93,62 %
28.05.2017 13:16 22,9 C 30,6 C 26,1 C 87 % 0 lf 1017,5 hPa 0,0 l/m 2 min 0 min 518 W/m 8,4 km/h (2 Bft) 93,48 %
28.05.2017 13:18 23,1 C 31,7 C 25,6 C 86 % 0 lf 1017,4 hPa 0,0 l/m 2 min 0 min 628 W/m 8,4 km/h (2 Bft) 95,74 %
28.05.2017 13:20 23,3 C 32,2 C 25,6 C 85 % 0 lf 1017,4 hPa 0,0 l/m 2 min 0 min 755 W/m 4,2 km/h (1 Bft) 95,74 %
28.05.2017 13:22 23,5 C 31,7 C 25,6 C 85 % 0 lf 1017,4 hPa 0,0 l/m 2 min 0 min 810 W/m 8,4 km/h (2 Bft) 97,87 %
28.05.2017 13:24 23,6 C 30,0 C 25,0 C 82 % 0 lf 1017,4 hPa 0,0 l/m 2 min 0 min 792 W/m 10,5 km/h (2 Bft) 95,74 %
28.05.2017 13:26 23,7 C 30,0 C 25,0 C 81 % 0 lf 1017,4 hPa 0,0 l/m 2 min 0 min 779 W/m 10,5 km/h (2 Bft) 95,74 %
28.05.2017 13:28 23,7 C 30,0 C 25,0 C 80 % 0 lf 1017,3 hPa 0,0 l/m 2 min 0 min 752 W/m 8,4 km/h (2 Bft) 95,65 %
28.05.2017 13:30 23,8 C 29,4 C 25,0 C 79 % 0 lf 1017,3 hPa 0,0 l/m 2 min 0 min 756 W/m 14,6 km/h (3 Bft) 93,62 %
28.05.2017 13:32 23,9 C 28,9 C 25,0 C 79 % 0 lf 1017,4 hPa 0,0 l/m 2 min 0 min 758 W/m 14,6 km/h (3 Bft) 95,74 %
28.05.2017 13:34 23,9 C 29,4 C 25,0 C 80 % 0 lf 1017,4 hPa 0,0 l/m 2 min 0 min 752 W/m 12,6 km/h (3 Bft) 95,74 %
28.05.2017 13:36 24,0 C 30,0 C 25,0 C 79 % 0 lf 1017,4 hPa 0,0 l/m 2 min 0 min 723 W/m 8,4 km/h (2 Bft) 93,62 %
28.05.2017 13:38 24,1 C 31,1 C 25,0 C 79 % 0 lf 1017,4 hPa 0,0 l/m 2 min 0 min 787 W/m 8,4 km/h (2 Bft) 97,87 %
28.05.2017 13:40 24,2 C 32,8 C 25,0 C 79 % 0 lf 1017,3 hPa 0,0 l/m 2 min 0 min 810 W/m 10,5 km/h (2 Bft) 97,83 %
28.05.2017 13:42 24,4 C 32,8 C 25,6 C 80 % 0 lf 1017,3 hPa 0,0 l/m 2 min 0 min 837 W/m 6,3 km/h (2 Bft) 98,11 %
28.05.2017 13:44 24,5 C 33,3 C 25,6 C 78 % 0 lf 1017,3 hPa 0,0 l/m 2 min 0 min 830 W/m 8,4 km/h (2 Bft) 100,00 %
28.05.2017 13:46 24,5 C 31,1 C 25,0 C 75 % 0 lf 1017,3 hPa 0,0 l/m 2 min 0 min 787 W/m 12,6 km/h (3 Bft) 97,87 %
28.05.2017 13:48 24,6 C 31,7 C 25,0 C 75 % 0 lf 1017,3 hPa 0,0 l/m 2 min 0 min 770 W/m 8,4 km/h (2 Bft) 95,74 %
28.05.2017 13:50 24,7 C 32,2 C 25,6 C 76 % 0 lf 1017,3 hPa 0,0 l/m 2 min 0 min 766 W/m 6,3 km/h (2 Bft) 100,00 %
28.05.2017 13:52 24,8 C 32,8 C 25,6 C 77 % 0 lf 1017,3 hPa 0,0 l/m 2 min 0 min 777 W/m 8,4 km/h (2 Bft) 97,87 %
28.05.2017 13:54 24,8 C 33,3 C 26,1 C 75 % 0 lf 1017,3 hPa 0,0 l/m 2 min 0 min 767 W/m 8,4 km/h (2 Bft) 97,83 %
28.05.2017 13:56 24,9 C 32,8 C 26,7 C 75 % 0 lf 1017,3 hPa 0,0 l/m 2 min 0 min 766 W/m 8,4 km/h (2 Bft) 100,00 %
28.05.2017 13:58 25,0 C 32,2 C 27,8 C 74 % 0 lf 1017,3 hPa 0,0 l/m 2 min 0 min 780 W/m 6,3 km/h (2 Bft) 100,00 %
28.05.2017 14:00 25,1 C 32,2 C 28,9 C 75 % 0 lf 1017,3 hPa 0,0 l/m 2 min 0 min 789 W/m 8,4 km/h (2 Bft) 97,87 %
28.05.2017 14:02 25,2 C 32,2 C 30,0 C 76 % 0 lf 1017,1 hPa 0,0 l/m 2 min 0 min 777 W/m 6,3 km/h (2 Bft) 97,87 %
28.05.2017 14:04 25,3 C 33,3 C 30,6 C 75 % 0 lf 1017,1 hPa 0,0 l/m 2 min 0 min 787 W/m 8,4 km/h (2 Bft) 100,00 %
28.05.2017 14:06 25,4 C 32,2 C 31,1 C 73 % 0 lf 1017,1 hPa 0,0 l/m 2 min 0 min 784 W/m 6,3 km/h (2 Bft) 100,00 %
28.05.2017 14:08 25,5 C 32,2 C 31,7 C 73 % 0 lf 1017,1 hPa 0,0 l/m 2 min 0 min 757 W/m 10,5 km/h (2 Bft) 100,00 %
28.05.2017 14:10 25,6 C 31,7 C 31,7 C 73 % 0 lf 1017,2 hPa 0,0 l/m 2 min 0 min 745 W/m 6,3 km/h (2 Bft) 100,00 %
28.05.2017 14:12 25,6 C 31,1 C 31,7 C 71 % 0 lf 1017,2 hPa 0,0 l/m 2 min 0 min 719 W/m 4,2 km/h (1 Bft) 97,92 %
28.05.2017 14:14 25,6 C 30,6 C 31,1 C 71 % 0 lf 1017,2 hPa 0,0 l/m 2 min 0 min 685 W/m 6,3 km/h (2 Bft) 100,00 %
28.05.2017 14:16 25,7 C 31,1 C 31,7 C 71 % 0 lf 1017,2 hPa 0,0 l/m 2 min 0 min 740 W/m 12,6 km/h (3 Bft) 97,87 %
28.05.2017 14:18 25,7 C 32,2 C 32,2 C 71 % 0 lf 1017,2 hPa 0,0 l/m 2 min 0 min 778 W/m 6,3 km/h (2 Bft) 97,83 %
28.05.2017 14:20 25,9 C 32,8 C 33,3 C 73 % 0 lf 1017,3 hPa 0,0 l/m 2 min 0 min 751 W/m 10,5 km/h (2 Bft) 100,00 %
28.05.2017 14:22 25,9 C 31,7 C 32,8 C 71 % 0 lf 1017,2 hPa 0,0 l/m 2 min 0 min 702 W/m 10,5 km/h (2 Bft) 100,00 %
28.05.2017 14:24 26,0 C 31,7 C 32,8 C 71 % 0 lf 1017,1 hPa 0,0 l/m 2 min 0 min 685 W/m 10,5 km/h (2 Bft) 100,00 %
28.05.2017 14:26 26,1 C 32,8 C 33,3 C 73 % 0 lf 1017,1 hPa 0,0 l/m 2 min 0 min 703 W/m 10,5 km/h (2 Bft) 97,87 %
28.05.2017 14:28 26,2 C 32,2 C 33,3 C 71 % 0 lf 1017,0 hPa 0,0 l/m 2 min 0 min 697 W/m 6,3 km/h (2 Bft) 97,83 %
28.05.2017 14:30 26,3 C 33,3 C 33,3 C 72 % 0 lf 1017,0 hPa 0,0 l/m 2 min 0 min 720 W/m 8,4 km/h (2 Bft) 100,00 %
28.05.2017 14:32 26,3 C 33,3 C 33,3 C 70 % 0 lf 1016,9 hPa 0,0 l/m 2 min 0 min 736 W/m 6,3 km/h (2 Bft) 100,00 %
28.05.2017 14:34 26,4 C 34,4 C 33,3 C 68 % 0 lf 1016,9 hPa 0,0 l/m 2 min 0 min 717 W/m 6,3 km/h (2 Bft) 93,62 %
28.05.2017 14:36 26,5 C 34,4 C 33,9 C 70 % 0 lf 1016,9 hPa 0,0 l/m 2 min 0 min 708 W/m 8,4 km/h (2 Bft) 97,96 %
28.05.2017 14:38 26,6 C 33,9 C 33,9 C 70 % 0 lf 1016,9 hPa 0,0 l/m 2 min 0 min 720 W/m 6,3 km/h (2 Bft) 97,87 %
28.05.2017 14:40 26,7 C 34,4 C 33,9 C 71 % 0 lf 1016,9 hPa 0,0 l/m 2 min 0 min 711 W/m 6,3 km/h (2 Bft) 95,74 %
28.05.2017 14:42 26,8 C 33,3 C 33,9 C 71 % 0 lf 1016,9 hPa 0,0 l/m 2 min 0 min 708 W/m 10,5 km/h (2 Bft) 97,87 %
28.05.2017 14:44 26,8 C 33,3 C 34,4 C 68 % 0 lf 1016,9 hPa 0,0 l/m 2 min 0 min 730 W/m 8,4 km/h (2 Bft) 95,74 %
28.05.2017 14:46 26,8 C 34,4 C 33,3 C 67 % 0 lf 1016,9 hPa 0,0 l/m 2 min 0 min 762 W/m 8,4 km/h (2 Bft) 97,83 %
28.05.2017 14:48 26,9 C 35,6 C 33,3 C 67 % 0 lf 1016,9 hPa 0,0 l/m 2 min 0 min 746 W/m 6,3 km/h (2 Bft) 97,87 %
28.05.2017 14:50 26,9 C 35,0 C 32,8 C 67 % 0 lf 1016,9 hPa 0,0 l/m 2 min 0 min 779 W/m 8,4 km/h (2 Bft) 95,74 %
28.05.2017 14:52 26,9 C 36,1 C 33,9 C 69 % 0 lf 1016,8 hPa 0,0 l/m 2 min 0 min 794 W/m 6,3 km/h (2 Bft) 95,74 %
28.05.2017 14:54 27,0 C 36,1 C 34,4 C 69 % 0 lf 1016,8 hPa 0,0 l/m 2 min 0 min 802 W/m 10,5 km/h (2 Bft) 97,87 %
28.05.2017 14:56 27,0 C 35,0 C 34,4 C 68 % 0 lf 1016,9 hPa 0,0 l/m 2 min 0 min 776 W/m 8,4 km/h (2 Bft) 97,87 %
28.05.2017 14:58 27,0 C 33,9 C 35,0 C 67 % 0 lf 1016,7 hPa 0,0 l/m 2 min 0 min 788 W/m 6,3 km/h (2 Bft) 93,48 %
28.05.2017 15:00 27,1 C 34,4 C 36,1 C 68 % 0 lf 1016,8 hPa 0,0 l/m 2 min 0 min 787 W/m 4,2 km/h (1 Bft) 95,74 %
28.05.2017 15:02 27,1 C 35,0 C 36,7 C 68 % 0 lf 1016,8 hPa 0,0 l/m 2 min 0 min 783 W/m 8,4 km/h (2 Bft) 95,74 %
28.05.2017 15:04 27,2 C 33,9 C 36,1 C 66 % 0 lf 1016,7 hPa 0,0 l/m 2 min 0 min 760 W/m 6,3 km/h (2 Bft) 97,87 %
28.05.2017 15:06 27,2 C 33,9 C 35,0 C 66 % 0 lf 1016,8 hPa 0,0 l/m 2 min 0 min 754 W/m 8,4 km/h (2 Bft) 97,87 %
28.05.2017 15:08 27,2 C 33,9 C 34,4 C 66 % 0 lf 1016,8 hPa 0,0 l/m 2 min 0 min 767 W/m 10,5 km/h (2 Bft) 93,62 %
28.05.2017 15:10 27,2 C 34,4 C 34,4 C 65 % 0 lf 1016,7 hPa 0,0 l/m 2 min 0 min 763 W/m 10,5 km/h (2 Bft) 95,65 %
28.05.2017 15:12 27,2 C 34,4 C 35,0 C 66 % 0 lf 1016,8 hPa 0,0 l/m 2 min 0 min 730 W/m 6,3 km/h (2 Bft) 94,44 %
28.05.2017 15:14 27,3 C 34,4 C 35,0 C 67 % 0 lf 1016,7 hPa 0,0 l/m 2 min 0 min 708 W/m 8,4 km/h (2 Bft) 93,48 %
28.05.2017 15:16 27,3 C 34,4 C 33,9 C 65 % 0 lf 1016,7 hPa 0,0 l/m 2 min 0 min 723 W/m 12,6 km/h (3 Bft) 95,74 %
28.05.2017 15:18 27,4 C 35,0 C 34,4 C 67 % 0 lf 1016,7 hPa 0,0 l/m 2 min 0 min 694 W/m 6,3 km/h (2 Bft) 95,74 %
28.05.2017 15:20 27,4 C 35,0 C 34,4 C 66 % 0 lf 1016,7 hPa 0,0 l/m 2 min 0 min 686 W/m 10,5 km/h (2 Bft) 93,22 %
28.05.2017 15:22 27,3 C 34,4 C 33,3 C 65 % 0 lf 1016,7 hPa 0,0 l/m 2 min 0 min 706 W/m 8,4 km/h (2 Bft) 97,14 %
28.05.2017 15:24 27,3 C 33,9 C 33,3 C 65 % 0 lf 1016,7 hPa 0,0 l/m 2 min 0 min 719 W/m 10,5 km/h (2 Bft) 95,74 %
28.05.2017 15:26 27,3 C 33,3 C 32,2 C 64 % 0 lf 1016,6 hPa 0,0 l/m 2 min 0 min 716 W/m 10,5 km/h (2 Bft) 97,83 %
28.05.2017 15:28 27,3 C 33,9 C 33,9 C 65 % 0 lf 1016,6 hPa 0,0 l/m 2 min 0 min 693 W/m 6,3 km/h (2 Bft) 97,87 %
28.05.2017 15:30 27,3 C 34,4 C 34,4 C 65 % 0 lf 1016,6 hPa 0,0 l/m 2 min 0 min 698 W/m 12,6 km/h (3 Bft) 95,65 %
28.05.2017 15:32 27,3 C 33,9 C 33,3 C 65 % 0 lf 1016,5 hPa 0,0 l/m 2 min 0 min 670 W/m 10,5 km/h (2 Bft) 91,49 %
28.05.2017 15:34 27,3 C 34,4 C 34,4 C 66 % 0 lf 1016,5 hPa 0,0 l/m 2 min 0 min 680 W/m 6,3 km/h (2 Bft) 95,74 %
28.05.2017 15:36 27,3 C 33,9 C 33,9 C 66 % 0 lf 1016,5 hPa 0,0 l/m 2 min 0 min 702 W/m 12,6 km/h (3 Bft) 96,55 %
28.05.2017 15:38 27,3 C 34,4 C 34,4 C 66 % 0 lf 1016,5 hPa 0,0 l/m 2 min 0 min 722 W/m 12,6 km/h (3 Bft) 97,87 %
28.05.2017 15:40 27,4 C 35,0 C 34,4 C 65 % 0 lf 1016,5 hPa 0,0 l/m 2 min 0 min 711 W/m 10,5 km/h (2 Bft) 93,62 %
28.05.2017 15:42 27,4 C 34,4 C 34,4 C 66 % 0 lf 1016,5 hPa 0,0 l/m 2 min 0 min 697 W/m 10,5 km/h (2 Bft) 100,00 %
28.05.2017 15:44 27,4 C 34,4 C 34,4 C 66 % 0 lf 1016,5 hPa 0,0 l/m 2 min 0 min 727 W/m 14,6 km/h (3 Bft) 95,74 %
28.05.2017 15:46 27,4 C 33,9 C 33,3 C 65 % 0 lf 1016,5 hPa 0,0 l/m 2 min 0 min 746 W/m 12,6 km/h (3 Bft) 97,87 %
28.05.2017 15:48 27,4 C 32,8 C 33,9 C 63 % 0 lf 1016,5 hPa 0,0 l/m 2 min 0 min 729 W/m 12,6 km/h (3 Bft) 97,87 %
28.05.2017 15:50 27,4 C 32,8 C 33,3 C 64 % 0 lf 1016,5 hPa 0,0 l/m 2 min 0 min 698 W/m 10,5 km/h (2 Bft) 94,83 %
28.05.2017 15:52 27,4 C 32,8 C 33,9 C 65 % 0 lf 1016,5 hPa 0,0 l/m 2 min 0 min 690 W/m 10,5 km/h (2 Bft) 100,00 %
28.05.2017 15:54 27,5 C 32,8 C 34,4 C 65 % 0 lf 1016,4 hPa 0,0 l/m 2 min 0 min 672 W/m 6,3 km/h (2 Bft) 97,87 %
28.05.2017 15:56 27,5 C 32,2 C 33,3 C 64 % 0 lf 1016,4 hPa 0,0 l/m 2 min 0 min 668 W/m 12,6 km/h (3 Bft) 97,87 %
28.05.2017 15:58 27,5 C 32,2 C 33,3 C 64 % 0 lf 1016,4 hPa 0,0 l/m 2 min 0 min 672 W/m 10,5 km/h (2 Bft) 97,87 %
28.05.2017 16:00 27,5 C 32,2 C 32,8 C 64 % 0 lf 1016,4 hPa 0,0 l/m 2 min 0 min 628 W/m 8,4 km/h (2 Bft) 95,65 %
28.05.2017 16:02 27,5 C 32,2 C 33,3 C 65 % 0 lf 1016,4 hPa 0,0 l/m 2 min 0 min 586 W/m 12,6 km/h (3 Bft) 97,87 %
28.05.2017 16:04 27,5 C 31,7 C 33,3 C 65 % 0 lf 1016,3 hPa 0,0 l/m 2 min 0 min 550 W/m 8,4 km/h (2 Bft) 93,62 %
28.05.2017 16:06 27,5 C 31,1 C 32,2 C 64 % 0 lf 1016,3 hPa 0,0 l/m 2 min 0 min 626 W/m 10,5 km/h (2 Bft) 98,18 %
28.05.2017 16:08 27,4 C 31,7 C 33,3 C 65 % 0 lf 1016,3 hPa 0,0 l/m 2 min 0 min 640 W/m 8,4 km/h (2 Bft) 97,87 %
28.05.2017 16:10 27,4 C 32,2 C 33,9 C 65 % 0 lf 1016,2 hPa 0,0 l/m 2 min 0 min 644 W/m 10,5 km/h (2 Bft) 95,74 %
28.05.2017 16:12 27,4 C 31,1 C 32,8 C 65 % 0 lf 1016,3 hPa 0,0 l/m 2 min 0 min 619 W/m 10,5 km/h (2 Bft) 95,83 %
28.05.2017 16:14 27,4 C 31,1 C 32,2 C 63 % 0 lf 1016,3 hPa 0,0 l/m 2 min 0 min 625 W/m 12,6 km/h (3 Bft) 93,48 %
28.05.2017 16:16 27,4 C 30,6 C 32,2 C 64 % 0 lf 1016,3 hPa 0,0 l/m 2 min 0 min 603 W/m 12,6 km/h (3 Bft) 93,62 %
28.05.2017 16:18 27,4 C 30,6 C 32,2 C 64 % 0 lf 1016,3 hPa 0,0 l/m 2 min 0 min 550 W/m 8,4 km/h (2 Bft) 95,74 %
28.05.2017 16:20 27,4 C 30,6 C 33,3 C 63 % 0 lf 1016,3 hPa 0,0 l/m 2 min 0 min 519 W/m 6,3 km/h (2 Bft) 93,62 %
28.05.2017 16:22 27,4 C 30,0 C 32,2 C 63 % 0 lf 1016,3 hPa 0,0 l/m 2 min 0 min 494 W/m 6,3 km/h (2 Bft) 93,62 %
28.05.2017 16:24 27,4 C 30,0 C 31,1 C 63 % 0 lf 1016,3 hPa 0,0 l/m 2 min 0 min 459 W/m 10,5 km/h (2 Bft) 97,87 %
28.05.2017 16:26 27,4 C 30,0 C 31,1 C 63 % 0 lf 1016,4 hPa 0,0 l/m 2 min 0 min 466 W/m 10,5 km/h (2 Bft) 95,65 %
28.05.2017 16:28 27,4 C 29,4 C 30,6 C 63 % 0 lf 1016,4 hPa 0,0 l/m 2 min 0 min 474 W/m 10,5 km/h (2 Bft) 95,74 %
28.05.2017 16:30 27,4 C 29,4 C 30,0 C 63 % 0 lf 1016,4 hPa 0,0 l/m 2 min 0 min 519 W/m 12,6 km/h (3 Bft) 95,74 %
28.05.2017 16:32 27,4 C 29,4 C 29,4 C 62 % 0 lf 1016,3 hPa 0,0 l/m 2 min 0 min 548 W/m 10,5 km/h (2 Bft) 91,67 %
28.05.2017 16:34 27,4 C 30,0 C 29,4 C 63 % 0 lf 1016,2 hPa 0,0 l/m 2 min 0 min 550 W/m 6,3 km/h (2 Bft) 95,74 %
28.05.2017 16:36 27,4 C 30,6 C 29,4 C 63 % 0 lf 1016,3 hPa 0,0 l/m 2 min 0 min 536 W/m 6,3 km/h (2 Bft) 97,92 %
28.05.2017 16:38 27,5 C 31,1 C 30,0 C 63 % 0 lf 1016,2 hPa 0,0 l/m 2 min 0 min 540 W/m 8,4 km/h (2 Bft) 97,87 %
28.05.2017 16:40 27,5 C 31,1 C 29,4 C 63 % 0 lf 1016,2 hPa 0,0 l/m 2 min 0 min 552 W/m 8,4 km/h (2 Bft) 95,74 %
28.05.2017 16:42 27,6 C 31,1 C 29,4 C 62 % 0 lf 1016,3 hPa 0,0 l/m 2 min 0 min 616 W/m 6,3 km/h (2 Bft) 97,14 %
28.05.2017 16:44 27,6 C 30,0 C 29,4 C 61 % 0 lf 1016,3 hPa 0,0 l/m 2 min 0 min 536 W/m 6,3 km/h (2 Bft) 97,87 %
28.05.2017 16:46 27,6 C 30,0 C 28,9 C 62 % 0 lf 1016,2 hPa 0,0 l/m 2 min 0 min 426 W/m 10,5 km/h (2 Bft) 97,87 %
28.05.2017 16:48 27,6 C 30,0 C 28,3 C 63 % 0 lf 1016,3 hPa 0,0 l/m 2 min 0 min 386 W/m 10,5 km/h (2 Bft) 97,83 %
28.05.2017 16:50 27,6 C 30,0 C 27,8 C 63 % 0 lf 1016,3 hPa 0,0 l/m 2 min 0 min 345 W/m 12,6 km/h (3 Bft) 94,92 %
28.05.2017 16:52 27,6 C 30,0 C 27,8 C 62 % 0 lf 1016,3 hPa 0,0 l/m 2 min 0 min 426 W/m 8,4 km/h (2 Bft) 97,30 %
28.05.2017 16:54 27,6 C 30,0 C 28,3 C 62 % 0 lf 1016,3 hPa 0,0 l/m 2 min 0 min 456 W/m 10,5 km/h (2 Bft) 95,74 %
28.05.2017 16:56 27,6 C 30,0 C 28,3 C 62 % 0 lf 1016,2 hPa 0,0 l/m 2 min 0 min 453 W/m 10,5 km/h (2 Bft) 93,62 %
28.05.2017 16:58 27,6 C 30,6 C 28,9 C 63 % 0 lf 1016,2 hPa 0,0 l/m 2 min 0 min 468 W/m 8,4 km/h (2 Bft) 95,74 %
28.05.2017 17:00 27,6 C 30,6 C 28,9 C 62 % 0 lf 1016,2 hPa 0,0 l/m 2 min 0 min 458 W/m 8,4 km/h (2 Bft) 97,87 %
28.05.2017 17:02 27,6 C 30,6 C 28,3 C 63 % 0 lf 1016,2 hPa 0,0 l/m 2 min 0 min 492 W/m 8,4 km/h (2 Bft) 95,74 %
28.05.2017 17:04 27,6 C 30,0 C 28,3 C 63 % 0 lf 1016,3 hPa 0,0 l/m 2 min 0 min 332 W/m 10,5 km/h (2 Bft) 97,87 %
28.05.2017 17:06 27,7 C 30,0 C 27,8 C 63 % 0 lf 1016,3 hPa 0,0 l/m 2 min 0 min 333 W/m 10,5 km/h (2 Bft) 95,74 %
28.05.2017 17:08 27,7 C 30,0 C 27,8 C 63 % 0 lf 1016,2 hPa 0,0 l/m 2 min 0 min 343 W/m 8,4 km/h (2 Bft) 95,74 %
28.05.2017 17:10 27,7 C 30,0 C 27,8 C 63 % 0 lf 1016,1 hPa 0,0 l/m 2 min 0 min 554 W/m 8,4 km/h (2 Bft) 95,65 %
28.05.2017 17:12 27,7 C 30,6 C 28,3 C 64 % 0 lf 1016,1 hPa 0,0 l/m 2 min 0 min 617 W/m 8,4 km/h (2 Bft) 94,44 %
28.05.2017 17:14 27,7 C 30,6 C 28,3 C 63 % 0 lf 1016,1 hPa 0,0 l/m 2 min 0 min 609 W/m 8,4 km/h (2 Bft) 97,83 %
28.05.2017 17:16 27,8 C 30,6 C 27,8 C 62 % 0 lf 1016,1 hPa 0,0 l/m 2 min 0 min 614 W/m 8,4 km/h (2 Bft) 95,74 %
28.05.2017 17:18 27,8 C 30,6 C 27,8 C 62 % 0 lf 1016,1 hPa 0,0 l/m 2 min 0 min 602 W/m 8,4 km/h (2 Bft) 95,74 %
28.05.2017 17:20 27,8 C 30,0 C 27,2 C 62 % 0 lf 1016,1 hPa 0,0 l/m 2 min 0 min 580 W/m 10,5 km/h (2 Bft) 95,74 %
28.05.2017 17:22 27,8 C 30,0 C 27,2 C 62 % 0 lf 1015,9 hPa 0,0 l/m 2 min 0 min 548 W/m 8,4 km/h (2 Bft) 95,74 %
28.05.2017 17:24 27,8 C 30,0 C 26,7 C 61 % 0 lf 1015,9 hPa 0,0 l/m 2 min 0 min 503 W/m 8,4 km/h (2 Bft) 93,48 %
28.05.2017 17:26 27,8 C 29,4 C 26,7 C 62 % 0 lf 1015,9 hPa 0,0 l/m 2 min 0 min 415 W/m 10,5 km/h (2 Bft) 93,62 %
28.05.2017 17:28 27,8 C 29,4 C 26,7 C 61 % 0 lf 1015,9 hPa 0,0 l/m 2 min 0 min 463 W/m 10,5 km/h (2 Bft) 91,49 %
28.05.2017 17:30 27,8 C 28,9 C 26,1 C 62 % 0 lf 1015,9 hPa 0,0 l/m 2 min 0 min 502 W/m 10,5 km/h (2 Bft) 93,62 %
28.05.2017 17:32 27,8 C 29,4 C 26,1 C 62 % 0 lf 1015,8 hPa 0,0 l/m 2 min 0 min 476 W/m 8,4 km/h (2 Bft) 93,75 %
28.05.2017 17:34 27,8 C 29,4 C 26,1 C 62 % 0 lf 1015,7 hPa 0,0 l/m 2 min 0 min 426 W/m 6,3 km/h (2 Bft) 93,62 %
28.05.2017 17:36 27,8 C 28,9 C 26,1 C 62 % 0 lf 1015,8 hPa 0,0 l/m 2 min 0 min 387 W/m 8,4 km/h (2 Bft) 95,92 %
28.05.2017 17:38 27,8 C 28,9 C 26,7 C 62 % 0 lf 1015,7 hPa 0,0 l/m 2 min 0 min 419 W/m 6,3 km/h (2 Bft) 95,74 %
28.05.2017 17:40 27,8 C 29,4 C 26,7 C 64 % 0 lf 1015,7 hPa 0,0 l/m 2 min 0 min 465 W/m 8,4 km/h (2 Bft) 95,74 %
28.05.2017 17:42 27,8 C 30,0 C 26,7 C 63 % 0 lf 1015,7 hPa 0,0 l/m 2 min 0 min 487 W/m 8,4 km/h (2 Bft) 94,44 %
28.05.2017 17:44 27,8 C 30,0 C 26,7 C 63 % 0 lf 1015,8 hPa 0,0 l/m 2 min 0 min 492 W/m 6,3 km/h (2 Bft) 93,62 %
28.05.2017 17:46 27,8 C 29,4 C 27,2 C 62 % 0 lf 1015,8 hPa 0,0 l/m 2 min 0 min 489 W/m 8,4 km/h (2 Bft) 89,36 %
28.05.2017 17:48 27,8 C 29,4 C 27,2 C 63 % 0 lf 1015,7 hPa 0,0 l/m 2 min 0 min 414 W/m 6,3 km/h (2 Bft) 95,74 %
28.05.2017 17:50 27,8 C 29,4 C 27,2 C 62 % 0 lf 1015,7 hPa 0,0 l/m 2 min 0 min 390 W/m 8,4 km/h (2 Bft) 97,83 %
28.05.2017 17:52 27,8 C 29,4 C 27,2 C 62 % 0 lf 1015,8 hPa 0,0 l/m 2 min 0 min 352 W/m 4,2 km/h (1 Bft) 95,74 %
28.05.2017 17:54 27,8 C 29,4 C 26,7 C 62 % 0 lf 1015,7 hPa 0,0 l/m 2 min 0 min 350 W/m 8,4 km/h (2 Bft) 95,74 %
28.05.2017 17:56 27,8 C 29,4 C 26,7 C 62 % 0 lf 1015,7 hPa 0,0 l/m 2 min 0 min 353 W/m 10,5 km/h (2 Bft) 93,62 %
28.05.2017 17:58 27,8 C 28,9 C 26,7 C 62 % 0 lf 1015,7 hPa 0,0 l/m 2 min 0 min 327 W/m 10,5 km/h (2 Bft) 95,74 %
28.05.2017 18:00 27,8 C 29,4 C 26,7 C 62 % 0 lf 1015,7 hPa 0,0 l/m 2 min 0 min 322 W/m 4,2 km/h (1 Bft) 95,74 %
28.05.2017 18:02 27,8 C 29,4 C 26,7 C 62 % 0 lf 1015,7 hPa 0,0 l/m 2 min 0 min 369 W/m 10,5 km/h (2 Bft) 95,74 %
28.05.2017 18:04 27,8 C 28,9 C 26,7 C 64 % 0 lf 1015,7 hPa 0,0 l/m 2 min 0 min 399 W/m 12,6 km/h (3 Bft) 93,62 %
28.05.2017 18:06 27,8 C 28,9 C 26,7 C 64 % 0 lf 1015,7 hPa 0,0 l/m 2 min 0 min 436 W/m 12,6 km/h (3 Bft) 97,87 %
28.05.2017 18:08 27,7 C 28,9 C 26,7 C 64 % 0 lf 1015,7 hPa 0,0 l/m 2 min 0 min 476 W/m 12,6 km/h (3 Bft) 100,00 %
28.05.2017 18:10 27,7 C 28,9 C 26,7 C 64 % 0 lf 1015,7 hPa 0,0 l/m 2 min 0 min 480 W/m 12,6 km/h (3 Bft) 100,00 %
28.05.2017 18:12 27,7 C 29,4 C 27,2 C 65 % 0 lf 1015,6 hPa 0,0 l/m 2 min 0 min 466 W/m 10,5 km/h (2 Bft) 93,62 %
28.05.2017 18:14 27,7 C 29,4 C 26,7 C 65 % 0 lf 1015,6 hPa 0,0 l/m 2 min 0 min 457 W/m 10,5 km/h (2 Bft) 100,00 %
28.05.2017 18:16 27,7 C 29,4 C 27,2 C 64 % 0 lf 1015,5 hPa 0,0 l/m 2 min 0 min 453 W/m 10,5 km/h (2 Bft) 100,00 %
28.05.2017 18:18 27,6 C 28,9 C 26,7 C 64 % 0 lf 1015,4 hPa 0,0 l/m 2 min 0 min 440 W/m 12,6 km/h (3 Bft) 97,87 %
28.05.2017 18:20 27,6 C 28,9 C 26,7 C 64 % 0 lf 1015,5 hPa 0,0 l/m 2 min 0 min 416 W/m 10,5 km/h (2 Bft) 97,83 %
28.05.2017 18:22 27,6 C 28,9 C 26,7 C 64 % 0 lf 1015,7 hPa 0,0 l/m 2 min 0 min 379 W/m 10,5 km/h (2 Bft) 97,87 %
28.05.2017 18:24 27,6 C 28,9 C 26,7 C 64 % 0 lf 1015,6 hPa 0,0 l/m 2 min 0 min 333 W/m 8,4 km/h (2 Bft) 100,00 %
28.05.2017 18:26 27,6 C 28,9 C 26,7 C 64 % 0 lf 1015,6 hPa 0,0 l/m 2 min 0 min 299 W/m 10,5 km/h (2 Bft) 100,00 %
28.05.2017 18:28 27,6 C 28,3 C 26,1 C 65 % 0 lf 1015,7 hPa 0,0 l/m 2 min 0 min 276 W/m 12,6 km/h (3 Bft) 100,00 %
28.05.2017 18:30 27,5 C 28,3 C 26,1 C 65 % 0 lf 1015,6 hPa 0,0 l/m 2 min 0 min 309 W/m 10,5 km/h (2 Bft) 97,87 %
28.05.2017 18:32 27,5 C 28,3 C 26,1 C 65 % 0 lf 1015,6 hPa 0,0 l/m 2 min 0 min 293 W/m 10,5 km/h (2 Bft) 97,83 %
28.05.2017 18:34 27,5 C 28,3 C 26,1 C 66 % 0 lf 1015,6 hPa 0,0 l/m 2 min 0 min 308 W/m 12,6 km/h (3 Bft) 97,87 %
28.05.2017 18:36 27,4 C 28,3 C 26,1 C 66 % 0 lf 1015,5 hPa 0,0 l/m 2 min 0 min 347 W/m 10,5 km/h (2 Bft) 100,00 %
28.05.2017 18:38 27,4 C 28,3 C 26,1 C 66 % 0 lf 1015,5 hPa 0,0 l/m 2 min 0 min 360 W/m 10,5 km/h (2 Bft) 97,87 %
28.05.2017 18:40 27,4 C 27,8 C 25,6 C 66 % 0 lf 1015,5 hPa 0,0 l/m 2 min 0 min 359 W/m 14,6 km/h (3 Bft) 95,74 %
28.05.2017 18:42 27,4 C 27,8 C 25,6 C 66 % 0 lf 1015,5 hPa 0,0 l/m 2 min 0 min 351 W/m 12,6 km/h (3 Bft) 97,92 %
28.05.2017 18:44 27,3 C 27,8 C 25,6 C 67 % 0 lf 1015,4 hPa 0,0 l/m 2 min 0 min 324 W/m 14,6 km/h (3 Bft) 95,74 %
28.05.2017 18:46 27,3 C 27,8 C 25,6 C 67 % 0 lf 1015,5 hPa 0,0 l/m 2 min 0 min 242 W/m 12,6 km/h (3 Bft) 97,83 %
28.05.2017 18:48 27,3 C 27,8 C 26,1 C 68 % 0 lf 1015,5 hPa 0,0 l/m 2 min 0 min 322 W/m 10,5 km/h (2 Bft) 97,87 %
28.05.2017 18:50 27,3 C 27,8 C 26,1 C 68 % 0 lf 1015,5 hPa 0,0 l/m 2 min 0 min 301 W/m 12,6 km/h (3 Bft) 97,87 %
28.05.2017 18:52 27,2 C 27,8 C 26,1 C 68 % 0 lf 1015,5 hPa 0,0 l/m 2 min 0 min 275 W/m 14,6 km/h (3 Bft) 95,74 %
28.05.2017 18:54 27,2 C 27,8 C 25,6 C 68 % 0 lf 1015,5 hPa 0,0 l/m 2 min 0 min 302 W/m 12,6 km/h (3 Bft) 97,87 %
28.05.2017 18:56 27,2 C 27,2 C 25,6 C 68 % 0 lf 1015,4 hPa 0,0 l/m 2 min 0 min 293 W/m 14,6 km/h (3 Bft) 97,87 %
28.05.2017 18:58 27,2 C 27,2 C 25,6 C 69 % 0 lf 1015,5 hPa 0,0 l/m 2 min 0 min 290 W/m 16,7 km/h (3 Bft) 97,83 %
28.05.2017 19:00 27,1 C 27,2 C 25,6 C 69 % 0 lf 1015,4 hPa 0,0 l/m 2 min 0 min 284 W/m 16,7 km/h (3 Bft) 93,62 %
28.05.2017 19:02 27,1 C 27,2 C 25,6 C 69 % 0 lf 1015,4 hPa 0,0 l/m 2 min 0 min 277 W/m 14,6 km/h (3 Bft) 93,62 %
28.05.2017 19:04 27,1 C 27,2 C 25,6 C 69 % 0 lf 1015,4 hPa 0,0 l/m 2 min 0 min 270 W/m 14,6 km/h (3 Bft) 95,74 %
28.05.2017 19:06 27,0 C 27,2 C 25,6 C 69 % 0 lf 1015,4 hPa 0,0 l/m 2 min 0 min 271 W/m 16,7 km/h (3 Bft) 97,30 %
28.05.2017 19:08 26,9 C 27,2 C 25,0 C 69 % 0 lf 1015,4 hPa 0,0 l/m 2 min 0 min 257 W/m 12,6 km/h (3 Bft) 93,62 %
28.05.2017 19:10 26,9 C 27,2 C 25,0 C 70 % 0 lf 1015,4 hPa 0,0 l/m 2 min 0 min 228 W/m 16,7 km/h (3 Bft) 95,74 %
28.05.2017 19:12 26,9 C 26,7 C 25,0 C 70 % 0 lf 1015,4 hPa 0,0 l/m 2 min 0 min 228 W/m 14,6 km/h (3 Bft) 89,36 %
28.05.2017 19:14 26,9 C 26,7 C 25,0 C 70 % 0 lf 1015,5 hPa 0,0 l/m 2 min 0 min 252 W/m 20,9 km/h (4 Bft) 95,74 %
28.05.2017 19:16 26,8 C 26,7 C 25,0 C 70 % 0 lf 1015,4 hPa 0,0 l/m 2 min 0 min 255 W/m 14,6 km/h (3 Bft) 93,62 %
28.05.2017 19:18 26,8 C 26,7 C 25,0 C 71 % 0 lf 1015,5 hPa 0,0 l/m 2 min 0 min 251 W/m 14,6 km/h (3 Bft) 95,74 %
28.05.2017 19:20 26,7 C 26,7 C 25,0 C 71 % 0 lf 1015,5 hPa 0,0 l/m 2 min 0 min 176 W/m 14,6 km/h (3 Bft) 95,65 %
28.05.2017 19:22 26,7 C 26,7 C 25,0 C 71 % 0 lf 1015,4 hPa 0,0 l/m 2 min 0 min 177 W/m 16,7 km/h (3 Bft) 95,74 %
28.05.2017 19:24 26,6 C 26,7 C 24,4 C 71 % 0 lf 1015,5 hPa 0,0 l/m 2 min 0 min 175 W/m 14,6 km/h (3 Bft) 97,87 %
28.05.2017 19:26 26,6 C 26,7 C 24,4 C 71 % 0 lf 1015,4 hPa 0,0 l/m 2 min 0 min 164 W/m 14,6 km/h (3 Bft) 95,74 %
28.05.2017 19:28 26,5 C 26,1 C 24,4 C 71 % 0 lf 1015,5 hPa 0,0 l/m 2 min 0 min 180 W/m 12,6 km/h (3 Bft) 93,62 %
28.05.2017 19:30 26,5 C 26,1 C 23,9 C 71 % 0 lf 1015,4 hPa 0,0 l/m 2 min 0 min 155 W/m 12,6 km/h (3 Bft) 91,30 %
28.05.2017 19:32 26,4 C 26,1 C 21,1 C 71 % 0 lf 1015,4 hPa 0,0 l/m 2 min 0 min 151 W/m 12,6 km/h (3 Bft) 93,62 %
28.05.2017 19:34 26,4 C 26,1 C 20,6 C 71 % 0 lf 1015,4 hPa 0,0 l/m 2 min 0 min 186 W/m 10,5 km/h (2 Bft) 93,62 %
28.05.2017 19:36 26,3 C 26,1 C 20,6 C 72 % 0 lf 1015,4 hPa 0,0 l/m 2 min 0 min 184 W/m 8,4 km/h (2 Bft) 95,74 %
28.05.2017 19:38 26,3 C 26,1 C 20,6 C 72 % 0 lf 1015,4 hPa 0,0 l/m 2 min 0 min 218 W/m 10,5 km/h (2 Bft) 95,74 %
28.05.2017 19:40 26,3 C 26,1 C 21,1 C 73 % 0 lf 1015,4 hPa 0,0 l/m 2 min 0 min 279 W/m 10,5 km/h (2 Bft) 97,87 %
28.05.2017 19:42 26,3 C 26,1 C 21,1 C 73 % 0 lf 1015,4 hPa 0,0 l/m 2 min 0 min 237 W/m 12,6 km/h (3 Bft) 100,00 %
28.05.2017 19:44 26,2 C 26,1 C 21,7 C 73 % 0 lf 1015,4 hPa 0,0 l/m 2 min 0 min 174 W/m 12,6 km/h (3 Bft) 95,74 %
28.05.2017 19:46 26,2 C 26,1 C 22,2 C 73 % 0 lf 1015,4 hPa 0,0 l/m 2 min 0 min 148 W/m 14,6 km/h (3 Bft) 95,65 %
28.05.2017 19:48 26,1 C 26,1 C 22,2 C 73 % 0 lf 1015,4 hPa 0,0 l/m 2 min 0 min 136 W/m 14,6 km/h (3 Bft) 97,87 %
28.05.2017 19:50 26,1 C 26,1 C 22,8 C 72 % 0 lf 1015,4 hPa 0,0 l/m 2 min 0 min 144 W/m 12,6 km/h (3 Bft) 97,87 %
28.05.2017 19:52 26,0 C 26,1 C 23,3 C 73 % 0 lf 1015,5 hPa 0,0 l/m 2 min 0 min 157 W/m 10,5 km/h (2 Bft) 95,74 %
28.05.2017 19:54 26,0 C 26,1 C 23,3 C 73 % 0 lf 1015,5 hPa 0,0 l/m 2 min 0 min 148 W/m 12,6 km/h (3 Bft) 97,87 %
28.05.2017 19:56 25,9 C 26,1 C 23,3 C 73 % 0 lf 1015,5 hPa 0,0 l/m 2 min 0 min 142 W/m 10,5 km/h (2 Bft) 91,30 %
28.05.2017 19:58 25,9 C 26,1 C 23,3 C 74 % 0 lf 1015,3 hPa 0,0 l/m 2 min 0 min 137 W/m 8,4 km/h (2 Bft) 93,62 %
28.05.2017 20:00 25,9 C 26,1 C 23,3 C 74 % 0 lf 1015,4 hPa 0,0 l/m 2 min 0 min 135 W/m 10,5 km/h (2 Bft) 93,62 %
28.05.2017 20:02 25,9 C 26,1 C 23,3 C 74 % 0 lf 1015,3 hPa 0,0 l/m 2 min 0 min 140 W/m 10,5 km/h (2 Bft) 93,62 %
28.05.2017 20:04 25,8 C 25,6 C 23,3 C 74 % 0 lf 1015,4 hPa 0,0 l/m 2 min 0 min 144 W/m 8,4 km/h (2 Bft) 95,74 %
28.05.2017 20:06 25,8 C 25,6 C 23,3 C 74 % 0 lf 1015,4 hPa 0,0 l/m 2 min 0 min 165 W/m 8,4 km/h (2 Bft) 96,00 %
28.05.2017 20:08 25,8 C 25,6 C 23,9 C 74 % 0 lf 1015,4 hPa 0,0 l/m 2 min 0 min 150 W/m 10,5 km/h (2 Bft) 95,65 %
28.05.2017 20:10 25,8 C 25,6 C 23,9 C 74 % 0 lf 1015,4 hPa 0,0 l/m 2 min 0 min 150 W/m 8,4 km/h (2 Bft) 93,62 %
28.05.2017 20:12 25,7 C 25,6 C 23,9 C 75 % 0 lf 1015,4 hPa 0,0 l/m 2 min 0 min 168 W/m 12,6 km/h (3 Bft) 91,67 %
28.05.2017 20:14 25,7 C 25,6 C 23,9 C 75 % 0 lf 1015,3 hPa 0,0 l/m 2 min 0 min 174 W/m 14,6 km/h (3 Bft) 95,74 %
28.05.2017 20:16 25,7 C 25,6 C 23,9 C 75 % 0 lf 1015,4 hPa 0,0 l/m 2 min 0 min 172 W/m 12,6 km/h (3 Bft) 95,74 %
28.05.2017 20:18 25,7 C 25,6 C 23,9 C 75 % 0 lf 1015,3 hPa 0,0 l/m 2 min 0 min 182 W/m 8,4 km/h (2 Bft) 95,65 %
28.05.2017 20:20 25,7 C 25,6 C 23,9 C 75 % 0 lf 1015,2 hPa 0,0 l/m 2 min 0 min 191 W/m 10,5 km/h (2 Bft) 93,62 %
28.05.2017 20:22 25,7 C 25,6 C 23,9 C 75 % 0 lf 1015,2 hPa 0,0 l/m 2 min 0 min 192 W/m 12,6 km/h (3 Bft) 93,62 %
28.05.2017 20:24 25,6 C 25,6 C 23,9 C 75 % 0 lf 1015,2 hPa 0,0 l/m 2 min 0 min 195 W/m 12,6 km/h (3 Bft) 93,62 %
28.05.2017 20:26 25,6 C 25,6 C 23,9 C 75 % 0 lf 1015,2 hPa 0,0 l/m 2 min 0 min 192 W/m 12,6 km/h (3 Bft) 95,74 %
28.05.2017 20:28 25,6 C 25,6 C 23,9 C 75 % 0 lf 1015,2 hPa 0,0 l/m 2 min 0 min 186 W/m 8,4 km/h (2 Bft) 95,74 %
28.05.2017 20:30 25,6 C 25,6 C 23,9 C 75 % 0 lf 1015,2 hPa 0,0 l/m 2 min 0 min 179 W/m 10,5 km/h (2 Bft) 95,65 %
28.05.2017 20:32 25,6 C 25,6 C 23,9 C 75 % 0 lf 1015,2 hPa 0,0 l/m 2 min 0 min 169 W/m 8,4 km/h (2 Bft) 97,30 %
28.05.2017 20:34 25,6 C 25,6 C 23,9 C 75 % 0 lf 1015,3 hPa 0,0 l/m 2 min 0 min 158 W/m 8,4 km/h (2 Bft) 97,83 %
28.05.2017 20:36 25,6 C 25,6 C 23,9 C 75 % 0 lf 1015,2 hPa 0,0 l/m 2 min 0 min 149 W/m 6,3 km/h (2 Bft) 95,83 %
28.05.2017 20:38 25,5 C 25,6 C 23,9 C 75 % 0 lf 1015,3 hPa 0,0 l/m 2 min 0 min 139 W/m 10,5 km/h (2 Bft) 93,62 %
28.05.2017 20:40 25,5 C 25,6 C 23,9 C 75 % 0 lf 1015,3 hPa 0,0 l/m 2 min 0 min 126 W/m 10,5 km/h (2 Bft) 100,00 %
28.05.2017 20:42 25,5 C 25,6 C 23,3 C 75 % 0 lf 1015,2 hPa 0,0 l/m 2 min 0 min 111 W/m 12,6 km/h (3 Bft) 95,74 %
28.05.2017 20:44 25,5 C 25,6 C 23,3 C 75 % 0 lf 1015,2 hPa 0,0 l/m 2 min 0 min 96 W/m 12,6 km/h (3 Bft) 97,87 %
28.05.2017 20:46 25,4 C 25,0 C 23,3 C 75 % 0 lf 1015,2 hPa 0,0 l/m 2 min 0 min 85 W/m 10,5 km/h (2 Bft) 100,00 %
28.05.2017 20:48 25,4 C 25,0 C 23,3 C 75 % 0 lf 1015,2 hPa 0,0 l/m 2 min 0 min 77 W/m 10,5 km/h (2 Bft) 100,00 %
28.05.2017 20:50 25,4 C 25,0 C 23,3 C 75 % 0 lf 1015,2 hPa 0,0 l/m 2 min 0 min 75 W/m 8,4 km/h (2 Bft) 97,87 %
28.05.2017 20:52 25,4 C 25,0 C 23,3 C 75 % 0 lf 1015,2 hPa 0,0 l/m 2 min 0 min 71 W/m 10,5 km/h (2 Bft) 100,00 %
28.05.2017 20:54 25,4 C 25,0 C 22,8 C 76 % 0 lf 1015,2 hPa 0,0 l/m 2 min 0 min 66 W/m 8,4 km/h (2 Bft) 100,00 %
28.05.2017 20:56 25,3 C 25,0 C 22,8 C 76 % 0 lf 1015,2 hPa 0,0 l/m 2 min 0 min 60 W/m 12,6 km/h (3 Bft) 100,00 %
28.05.2017 20:58 25,3 C 25,0 C 22,8 C 76 % 0 lf 1015,2 hPa 0,0 l/m 2 min 0 min 56 W/m 8,4 km/h (2 Bft) 97,87 %
28.05.2017 21:00 25,3 C 24,4 C 22,8 C 76 % 0 lf 1015,2 hPa 0,0 l/m 2 min 0 min 52 W/m 8,4 km/h (2 Bft) 95,74 %
28.05.2017 21:02 25,2 C 24,4 C 22,8 C 76 % 0 lf 1015,2 hPa 0,0 l/m 2 min 0 min 49 W/m 8,4 km/h (2 Bft) 100,00 %
28.05.2017 21:04 25,2 C 24,4 C 22,8 C 76 % 0 lf 1015,2 hPa 0,0 l/m 2 min 0 min 44 W/m 8,4 km/h (2 Bft) 100,00 %
28.05.2017 21:06 25,2 C 24,4 C 22,8 C 76 % 0 lf 1015,2 hPa 0,0 l/m 2 min 0 min 42 W/m 8,4 km/h (2 Bft) 95,74 %
28.05.2017 21:08 25,1 C 24,4 C 22,2 C 76 % 0 lf 1015,2 hPa 0,0 l/m 2 min 0 min 39 W/m 8,4 km/h (2 Bft) 100,00 %
28.05.2017 21:10 25,1 C 24,4 C 22,2 C 76 % 0 lf 1015,2 hPa 0,0 l/m 2 min 0 min 38 W/m 8,4 km/h (2 Bft) 97,87 %
28.05.2017 21:12 25,1 C 24,4 C 22,2 C 76 % 0 lf 1015,2 hPa 0,0 l/m 2 min 0 min 36 W/m 8,4 km/h (2 Bft) 98,11 %
28.05.2017 21:14 25,1 C 23,9 C 22,2 C 76 % 0 lf 1015,3 hPa 0,0 l/m 2 min 0 min 34 W/m 6,3 km/h (2 Bft) 97,87 %
28.05.2017 21:16 25,0 C 23,9 C 21,7 C 76 % 0 lf 1015,2 hPa 0,0 l/m 2 min 0 min 32 W/m 6,3 km/h (2 Bft) 97,87 %
28.05.2017 21:18 25,0 C 23,9 C 21,7 C 77 % 0 lf 1015,2 hPa 0,0 l/m 2 min 0 min 30 W/m 6,3 km/h (2 Bft) 95,65 %
28.05.2017 21:20 24,9 C 23,9 C 21,7 C 77 % 0 lf 1015,2 hPa 0,0 l/m 2 min 0 min 28 W/m 8,4 km/h (2 Bft) 97,87 %
28.05.2017 21:22 24,9 C 23,9 C 21,7 C 77 % 0 lf 1015,2 hPa 0,0 l/m 0 min 0 min 18 W/m 6,3 km/h (2 Bft) 93,62 %
28.05.2017 21:24 24,9 C 23,9 C 21,7 C 77 % 0 lf 1015,2 hPa 0,0 l/m 0 min 0 min 13 W/m 2,1 km/h (1 Bft) 97,87 %
28.05.2017 21:26 24,8 C 23,9 C 21,1 C 77 % 0 lf 1015,2 hPa 0,0 l/m 0 min 0 min 8 W/m 2,1 km/h (1 Bft) 95,74 %
28.05.2017 21:28 24,8 C 23,3 C 21,1 C 77 % 0 lf 1015,2 hPa 0,0 l/m 0 min 0 min 4 W/m 4,2 km/h (1 Bft) 95,74 %
28.05.2017 21:30 24,8 C 23,3 C 21,1 C 78 % 0 lf 1015,1 hPa 0,0 l/m 0 min 0 min 24 W/m 6,3 km/h (2 Bft) 97,83 %
28.05.2017 21:32 24,7 C 23,3 C 21,1 C 78 % 0 lf 1015,2 hPa 0,0 l/m 0 min 0 min 24 W/m 4,2 km/h (1 Bft) 97,92 %
28.05.2017 21:34 24,7 C 23,3 C 21,7 C 78 % 0 lf 1015,1 hPa 0,0 l/m 0 min 0 min 24 W/m 4,2 km/h (1 Bft) 95,74 %
28.05.2017 21:36 24,6 C 23,3 C 21,1 C 78 % 0 lf 1015,1 hPa 0,0 l/m 0 min 0 min 23 W/m 6,3 km/h (2 Bft) 96,00 %
28.05.2017 21:38 24,6 C 23,3 C 21,1 C 78 % 0 lf 1015,1 hPa 0,0 l/m 0 min 0 min 21 W/m 4,2 km/h (1 Bft) 97,87 %
28.05.2017 21:40 24,6 C 23,3 C 21,1 C 78 % 0 lf 1015,2 hPa 0,0 l/m 0 min 0 min 20 W/m 6,3 km/h (2 Bft) 97,83 %
28.05.2017 21:42 24,5 C 23,3 C 21,1 C 79 % 0 lf 1015,2 hPa 0,0 l/m 0 min 0 min 18 W/m 4,2 km/h (1 Bft) 100,00 %
28.05.2017 21:44 24,5 C 23,3 C 21,1 C 79 % 0 lf 1015,3 hPa 0,0 l/m 0 min 0 min 17 W/m 2,1 km/h (1 Bft) 89,13 %
28.05.2017 21:46 24,4 C 23,3 C 20,6 C 79 % 0 lf 1015,4 hPa 0,0 l/m 0 min 0 min 16 W/m 4,2 km/h (1 Bft) 95,74 %
28.05.2017 21:48 24,4 C 23,3 C 20,6 C 79 % 0 lf 1015,3 hPa 0,0 l/m 0 min 0 min 14 W/m 4,2 km/h (1 Bft) 95,74 %
28.05.2017 21:50 24,4 C 22,8 C 20,6 C 79 % 0 lf 1015,3 hPa 0,0 l/m 0 min 0 min 14 W/m 2,1 km/h (1 Bft) 100,00 %
28.05.2017 21:52 24,4 C 22,8 C 20,6 C 79 % 0 lf 1015,3 hPa 0,0 l/m 0 min 0 min 14 W/m 0,0 km/h (0 Bft) 94,29 %
28.05.2017 21:54 24,3 C 22,8 C 20,6 C 79 % 0 lf 1015,4 hPa 0,0 l/m 0 min 0 min 12 W/m 0,0 km/h (0 Bft) 97,87 %
28.05.2017 21:56 24,3 C 22,8 C 20,0 C 79 % 0 lf 1015,5 hPa 0,0 l/m 0 min 0 min 0 W/m 2,1 km/h (1 Bft) 97,83 %
28.05.2017 21:58 24,3 C 22,8 C 20,0 C 79 % 0 lf 1015,4 hPa 0,0 l/m 0 min 0 min 0 W/m 2,1 km/h (1 Bft) 95,74 %
28.05.2017 22:00 24,2 C 22,2 C 20,0 C 79 % 0 lf 1015,5 hPa 0,0 l/m 0 min 0 min 0 W/m 0,0 km/h (0 Bft) 95,74 %
28.05.2017 22:02 24,2 C 22,2 C 20,0 C 79 % 0 lf 1015,4 hPa 0,0 l/m 0 min 0 min 0 W/m 4,2 km/h (1 Bft) 95,74 %
28.05.2017 22:04 24,2 C 22,2 C 20,0 C 79 % 0 lf 1015,4 hPa 0,0 l/m 0 min 0 min 0 W/m 4,2 km/h (1 Bft) 97,87 %
28.05.2017 22:06 24,1 C 22,2 C 20,0 C 79 % 0 lf 1015,4 hPa 0,0 l/m 0 min 0 min 0 W/m 4,2 km/h (1 Bft) 95,74 %
28.05.2017 22:08 24,1 C 22,2 C 20,0 C 79 % 0 lf 1015,4 hPa 0,0 l/m 0 min 0 min 0 W/m 2,1 km/h (1 Bft) 97,87 %
28.05.2017 22:10 24,0 C 22,2 C 19,4 C 79 % 0 lf 1015,4 hPa 0,0 l/m 0 min 0 min 0 W/m 2,1 km/h (1 Bft) 97,87 %
28.05.2017 22:12 24,0 C 22,2 C 19,4 C 79 % 0 lf 1015,4 hPa 0,0 l/m 0 min 0 min 0 W/m 2,1 km/h (1 Bft) 97,87 %
28.05.2017 22:14 23,9 C 22,2 C 19,4 C 80 % 0 lf 1015,5 hPa 0,0 l/m 0 min 0 min 0 W/m 2,1 km/h (1 Bft) 95,65 %
28.05.2017 22:16 23,9 C 22,2 C 19,4 C 80 % 0 lf 1015,4 hPa 0,0 l/m 0 min 0 min 0 W/m 2,1 km/h (1 Bft) 95,74 %
28.05.2017 22:18 23,8 C 22,2 C 19,4 C 80 % 0 lf 1015,4 hPa 0,0 l/m 0 min 0 min 0 W/m 4,2 km/h (1 Bft) 95,74 %
28.05.2017 22:20 23,8 C 21,7 C 19,4 C 80 % 0 lf 1015,4 hPa 0,0 l/m 0 min 0 min 0 W/m 2,1 km/h (1 Bft) 97,87 %
28.05.2017 22:22 23,7 C 21,7 C 19,4 C 80 % 0 lf 1015,4 hPa 0,0 l/m 0 min 0 min 0 W/m 0,0 km/h (0 Bft) 97,87 %
28.05.2017 22:24 23,7 C 21,7 C 19,4 C 80 % 0 lf 1015,4 hPa 0,0 l/m 0 min 0 min 0 W/m 0,0 km/h (0 Bft) 95,74 %
28.05.2017 22:26 23,7 C 21,7 C 19,4 C 80 % 0 lf 1015,4 hPa 0,0 l/m 0 min 0 min 0 W/m 0,0 km/h (0 Bft) 100,00 %
28.05.2017 22:28 23,6 C 21,7 C 18,9 C 80 % 0 lf 1015,4 hPa 0,0 l/m 0 min 0 min 0 W/m 0,0 km/h (0 Bft) 91,49 %
28.05.2017 22:30 23,6 C 22,2 C 18,9 C 80 % 0 lf 1015,4 hPa 0,0 l/m 0 min 0 min 0 W/m 0,0 km/h (0 Bft) 97,87 %
28.05.2017 22:32 23,5 C 22,2 C 18,9 C 80 % 0 lf 1015,4 hPa 0,0 l/m 0 min 0 min 0 W/m 0,0 km/h (0 Bft) 97,87 %
28.05.2017 22:34 23,5 C 21,7 C 18,9 C 80 % 0 lf 1015,4 hPa 0,0 l/m 0 min 0 min 0 W/m 0,0 km/h (0 Bft) 93,62 %
28.05.2017 22:36 23,4 C 21,7 C 18,9 C 80 % 0 lf 1015,3 hPa 0,0 l/m 0 min 0 min 0 W/m 0,0 km/h (0 Bft) 95,74 %
28.05.2017 22:38 23,4 C 21,7 C 18,9 C 81 % 0 lf 1015,3 hPa 0,0 l/m 0 min 0 min 0 W/m 0,0 km/h (0 Bft) 95,65 %
28.05.2017 22:40 23,3 C 21,7 C 18,9 C 81 % 0 lf 1015,2 hPa 0,0 l/m 0 min 0 min 0 W/m 0,0 km/h (0 Bft) 95,74 %
28.05.2017 22:42 23,3 C 21,7 C 18,9 C 81 % 0 lf 1015,3 hPa 0,0 l/m 0 min 0 min 0 W/m 0,0 km/h (0 Bft) 95,74 %
28.05.2017 22:44 23,3 C 21,7 C 18,9 C 81 % 0 lf 1015,3 hPa 0,0 l/m 0 min 0 min 0 W/m 0,0 km/h (0 Bft) 95,74 %
28.05.2017 22:46 23,2 C 21,7 C 18,9 C 81 % 0 lf 1015,3 hPa 0,0 l/m 0 min 0 min 0 W/m 0,0 km/h (0 Bft) 95,74 %
28.05.2017 22:48 23,2 C 21,7 C 18,9 C 81 % 0 lf 1015,3 hPa 0,0 l/m 0 min 0 min 0 W/m 0,0 km/h (0 Bft) 97,87 %
28.05.2017 22:50 23,2 C 21,7 C 18,9 C 81 % 0 lf 1015,2 hPa 0,0 l/m 0 min 0 min 0 W/m 0,0 km/h (0 Bft) 95,65 %
28.05.2017 22:52 23,1 C 21,7 C 18,9 C 81 % 0 lf 1015,2 hPa 0,0 l/m 0 min 0 min 0 W/m 0,0 km/h (0 Bft) 93,62 %
28.05.2017 22:54 23,1 C 21,7 C 18,9 C 81 % 0 lf 1015,2 hPa 0,0 l/m 0 min 0 min 0 W/m 0,0 km/h (0 Bft) 95,74 %
28.05.2017 22:56 23,0 C 21,7 C 18,9 C 81 % 0 lf 1015,3 hPa 0,0 l/m 0 min 0 min 0 W/m 0,0 km/h (0 Bft) 95,74 %
28.05.2017 22:58 23,0 C 21,7 C 18,9 C 81 % 0 lf 1015,2 hPa 0,0 l/m 0 min 0 min 0 W/m 0,0 km/h (0 Bft) 95,74 %
28.05.2017 23:00 22,9 C 21,7 C 19,4 C 81 % 0 lf 1015,2 hPa 0,0 l/m 0 min 0 min 0 W/m 0,0 km/h (0 Bft) 93,62 %
28.05.2017 23:02 22,9 C 21,7 C 19,4 C 81 % 0 lf 1015,3 hPa 0,0 l/m 0 min 0 min 0 W/m 0,0 km/h (0 Bft) 94,34 %
28.05.2017 23:04 22,9 C 21,7 C 19,4 C 81 % 0 lf 1015,2 hPa 0,0 l/m 0 min 0 min 0 W/m 0,0 km/h (0 Bft) 95,65 %
28.05.2017 23:06 22,8 C 21,7 C 19,4 C 81 % 0 lf 1015,2 hPa 0,0 l/m 0 min 0 min 0 W/m 0,0 km/h (0 Bft) 96,00 %
28.05.2017 23:08 22,8 C 21,7 C 19,4 C 82 % 0 lf 1015,2 hPa 0,0 l/m 0 min 0 min 0 W/m 0,0 km/h (0 Bft) 87,23 %
28.05.2017 23:10 22,8 C 21,7 C 19,4 C 83 % 0 lf 1015,1 hPa 0,0 l/m 0 min 0 min 0 W/m 0,0 km/h (0 Bft) 95,74 %
28.05.2017 23:12 22,8 C 22,2 C 19,4 C 83 % 0 lf 1015,1 hPa 0,0 l/m 0 min 0 min 0 W/m 0,0 km/h (0 Bft) 95,83 %
28.05.2017 23:14 22,8 C 22,2 C 19,4 C 84 % 0 lf 1015,0 hPa 0,0 l/m 0 min 0 min 0 W/m 0,0 km/h (0 Bft) 93,48 %
28.05.2017 23:16 22,7 C 22,2 C 19,4 C 84 % 0 lf 1015,1 hPa 0,0 l/m 0 min 0 min 0 W/m 0,0 km/h (0 Bft) 91,49 %
28.05.2017 23:18 22,7 C 22,2 C 19,4 C 84 % 0 lf 1015,0 hPa 0,0 l/m 0 min 0 min 0 W/m 0,0 km/h (0 Bft) 93,62 %
28.05.2017 23:20 22,7 C 21,7 C 19,4 C 84 % 0 lf 1015,0 hPa 0,0 l/m 0 min 0 min 0 W/m 0,0 km/h (0 Bft) 91,49 %
28.05.2017 23:22 22,7 C 22,2 C 19,4 C 84 % 0 lf 1015,0 hPa 0,0 l/m 0 min 0 min 0 W/m 0,0 km/h (0 Bft) 91,49 %
28.05.2017 23:24 22,6 C 21,7 C 19,4 C 84 % 0 lf 1015,0 hPa 0,0 l/m 0 min 0 min 0 W/m 0,0 km/h (0 Bft) 95,74 %
28.05.2017 23:26 22,6 C 21,7 C 19,4 C 84 % 0 lf 1015,1 hPa 0,0 l/m 0 min 0 min 0 W/m 0,0 km/h (0 Bft) 91,30 %
28.05.2017 23:28 22,6 C 21,7 C 19,4 C 84 % 0 lf 1015,1 hPa 0,0 l/m 0 min 0 min 0 W/m 0,0 km/h (0 Bft) 95,74 %
28.05.2017 23:30 22,6 C 21,7 C 19,4 C 84 % 0 lf 1015,0 hPa 0,0 l/m 0 min 0 min 0 W/m 0,0 km/h (0 Bft) 93,62 %
28.05.2017 23:32 22,6 C 21,7 C 19,4 C 84 % 0 lf 1015,0 hPa 0,0 l/m 0 min 0 min 0 W/m 0,0 km/h (0 Bft) 97,22 %
28.05.2017 23:34 22,5 C 22,2 C 19,4 C 84 % 0 lf 1015,0 hPa 0,0 l/m 0 min 0 min 0 W/m 0,0 km/h (0 Bft) 93,62 %
28.05.2017 23:36 22,5 C 22,2 C 19,4 C 85 % 0 lf 1015,0 hPa 0,0 l/m 0 min 0 min 0 W/m 0,0 km/h (0 Bft) 95,74 %
28.05.2017 23:38 22,5 C 22,2 C 19,4 C 85 % 0 lf 1014,9 hPa 0,0 l/m 0 min 0 min 0 W/m 0,0 km/h (0 Bft) 95,74 %
28.05.2017 23:40 22,4 C 22,2 C 19,4 C 85 % 0 lf 1014,9 hPa 0,0 l/m 0 min 0 min 0 W/m 0,0 km/h (0 Bft) 93,62 %
28.05.2017 23:42 22,4 C 21,7 C 19,4 C 85 % 0 lf 1015,0 hPa 0,0 l/m 0 min 0 min 0 W/m 0,0 km/h (0 Bft) 95,74 %
28.05.2017 23:44 22,4 C 21,7 C 19,4 C 85 % 0 lf 1015,0 hPa 0,0 l/m 0 min 0 min 0 W/m 0,0 km/h (0 Bft) 93,62 %
28.05.2017 23:46 22,4 C 21,7 C 19,4 C 85 % 1 lf 1015,0 hPa 0,0 l/m 0 min 2 min 0 W/m 0,0 km/h (0 Bft) 95,74 %
28.05.2017 23:48 22,4 C 21,7 C 19,4 C 85 % 0 lf 1015,0 hPa 0,0 l/m 0 min 0 min 0 W/m 0,0 km/h (0 Bft) 95,65 %
28.05.2017 23:50 22,4 C 21,7 C 19,4 C 85 % 0 lf 1015,0 hPa 0,0 l/m 0 min 0 min 0 W/m 0,0 km/h (0 Bft) 97,87 %
28.05.2017 23:52 22,3 C 21,7 C 19,4 C 85 % 1 lf 1014,9 hPa 0,0 l/m 0 min 0 min 0 W/m 0,0 km/h (0 Bft) 100,00 %
28.05.2017 23:54 22,3 C 21,7 C 19,4 C 85 % 0 lf 1014,9 hPa 0,0 l/m 0 min 0 min 0 W/m 0,0 km/h (0 Bft) 100,00 %
28.05.2017 23:56 22,3 C 21,7 C 19,4 C 85 % 0 lf 1014,9 hPa 0,0 l/m 0 min 0 min 0 W/m 0,0 km/h (0 Bft) 100,00 %
28.05.2017 23:58 22,3 C 21,7 C 19,4 C 85 % 0 lf 1014,9 hPa 0,0 l/m 0 min 0 min 0 W/m 0,0 km/h (0 Bft) 97,87 %
_ Min-Zeit 06:20 07:34 03:16 00:00 00:00 23:38 - - - - 02:40 09:26
Minimum _ 18,3 C 17,2 C 16,1 C 59 % 0 lf 1014,9 hPa - - - - 0,0 km/h (0 Bft) 87,23 %
_ Max-Zeit 17:16 14:52 15:02 12:12 07:28 10:08 10:16 08:16 07:14 13:12 19:14 00:02
Maximum _ 27,8 C 36,1 C 36,7 C 96 % 15 lf 1019,5 hPa 1,2 l/m 2 min 2 min 886 W/m 20,9 km/h
N-NO (4 Bft)
100,00 %
Durchschnitt _ 22,7 C 23,9 C 21,8 C 78 % 2 lf 1016,6 hPa #5,8 l/m #10:16 h #1:46 h 310 W/m 7,6 km/h (2 Bft) 96,31 %
© 2017 W. Hausmann